GEFSCGP_prec_meanprecacc_066.txt.gz
Total_Precipitation_Accumulation
0.00 0.00 0.00 0.01 0.01 0.01 0.01 0.03 0.08 0.14 0.08 0.08 0.15 0.22 0.28 0.31 0.32 0.33 0.31 0.23 0.25 0.33 0.47 0.68 0.98 1.31 1.68 2.33 3.00 3.21 2.81 2.38 1.98 1.69 1.43 1.18 0.98 0.92 0.87 0.74 0.69 0.69 0.71 0.74
0.01 0.01 0.01 0.01 0.02 0.04 0.04 0.05 0.10 0.13 0.08 0.09 0.13 0.24 0.38 0.43 0.46 0.41 0.33 0.25 0.30 0.48 0.69 0.97 1.34 1.57 1.82 2.24 2.70 2.69 2.25 1.80 1.32 1.03 0.93 0.82 0.69 0.60 0.51 0.48 0.51 0.49 0.55 0.63
0.01 0.03 0.02 0.01 0.02 0.05 0.06 0.06 0.11 0.13 0.06 0.09 0.13 0.30 0.51 0.56 0.45 0.35 0.24 0.18 0.23 0.40 0.71 1.15 1.65 1.92 2.04 2.05 1.95 1.78 1.35 0.88 0.65 0.49 0.47 0.42 0.41 0.40 0.33 0.29 0.32 0.32 0.35 0.39
0.01 0.02 0.01 0.02 0.03 0.04 0.06 0.04 0.04 0.04 0.04 0.11 0.19 0.43 0.61 0.59 0.46 0.38 0.27 0.20 0.21 0.35 0.71 1.25 1.58 1.63 1.63 1.52 1.17 0.89 0.69 0.45 0.32 0.29 0.32 0.33 0.30 0.30 0.26 0.23 0.25 0.23 0.24 0.27
0.02 0.02 0.02 0.01 0.02 0.03 0.04 0.03 0.03 0.04 0.05 0.10 0.24 0.46 0.69 0.59 0.52 0.40 0.27 0.21 0.24 0.33 0.52 0.77 0.87 0.93 0.94 0.84 0.68 0.54 0.46 0.36 0.34 0.35 0.38 0.39 0.28 0.23 0.21 0.20 0.20 0.20 0.23 0.26
0.03 0.03 0.02 0.02 0.02 0.02 0.03 0.04 0.06 0.10 0.12 0.26 0.36 0.43 0.72 0.67 0.50 0.30 0.20 0.19 0.17 0.23 0.36 0.48 0.47 0.44 0.42 0.34 0.35 0.36 0.40 0.45 0.42 0.35 0.31 0.31 0.27 0.23 0.20 0.18 0.18 0.19 0.22 0.26
0.08 0.05 0.05 0.04 0.04 0.04 0.04 0.05 0.12 0.32 0.48 0.53 0.37 0.40 0.70 0.50 0.32 0.21 0.15 0.13 0.17 0.28 0.35 0.39 0.43 0.41 0.32 0.24 0.25 0.24 0.22 0.26 0.29 0.28 0.27 0.26 0.27 0.24 0.22 0.20 0.16 0.17 0.19 0.23
0.12 0.11 0.06 0.04 0.03 0.04 0.04 0.05 0.08 0.17 0.16 0.21 0.24 0.61 0.76 0.35 0.24 0.15 0.09 0.09 0.15 0.21 0.25 0.25 0.26 0.24 0.19 0.14 0.10 0.09 0.10 0.11 0.12 0.13 0.16 0.18 0.22 0.20 0.20 0.23 0.19 0.17 0.20 0.24
0.03 0.03 0.02 0.02 0.03 0.04 0.04 0.03 0.04 0.04 0.04 0.10 0.26 0.50 0.45 0.26 0.17 0.10 0.06 0.05 0.07 0.09 0.09 0.09 0.08 0.07 0.06 0.05 0.04 0.04 0.05 0.05 0.05 0.06 0.09 0.12 0.16 0.18 0.18 0.20 0.19 0.19 0.24 0.26
0.01 0.01 0.01 0.02 0.02 0.04 0.04 0.03 0.02 0.02 0.02 0.04 0.16 0.43 0.49 0.27 0.17 0.08 0.04 0.03 0.03 0.03 0.03 0.03 0.03 0.03 0.02 0.02 0.02 0.02 0.02 0.03 0.03 0.04 0.05 0.07 0.09 0.13 0.15 0.15 0.18 0.21 0.21 0.22
0.00 0.00 0.00 0.01 0.02 0.03 0.02 0.02 0.02 0.02 0.02 0.02 0.06 0.20 0.17 0.11 0.05 0.02 0.01 0.01 0.01 0.01 0.01 0.01 0.01 0.01 0.01 0.01 0.01 0.01 0.02 0.02 0.02 0.02 0.03 0.04 0.06 0.08 0.11 0.14 0.16 0.18 0.19 0.20
0.00 0.00 0.00 0.02 0.03 0.02 0.01 0.01 0.01 0.01 0.02 0.02 0.03 0.09 0.07 0.05 0.02 0.01 0.01 0.00 0.00 0.00 0.00 0.00 0.00 0.00 0.00 0.01 0.01 0.01 0.02 0.02 0.02 0.02 0.02 0.03 0.05 0.06 0.07 0.09 0.13 0.16 0.18 0.18
0.00 0.00 0.01 0.04 0.06 0.03 0.01 0.01 0.02 0.01 0.01 0.02 0.08 0.14 0.05 0.02 0.01 0.00 0.00 0.00 0.00 0.00 0.00 0.00 0.00 0.00 0.00 0.01 0.01 0.01 0.01 0.01 0.01 0.01 0.02 0.02 0.02 0.04 0.05 0.07 0.10 0.13 0.16 0.18
0.00 0.00 0.00 0.03 0.03 0.01 0.01 0.02 0.03 0.02 0.02 0.02 0.06 0.13 0.04 0.01 0.00 0.00 0.00 0.00 0.00 0.00 0.00 0.00 0.00 0.00 0.00 0.00 0.00 0.00 0.00 0.00 0.00 0.01 0.01 0.02 0.02 0.03 0.05 0.06 0.09 0.12 0.15 0.17
0.00 0.00 0.00 0.00 0.00 0.01 0.02 0.04 0.03 0.02 0.02 0.04 0.03 0.03 0.02 0.00 0.00 0.00 0.00 0.00 0.00 0.00 0.00 0.00 0.00 0.00 0.00 0.00 0.00 0.00 0.01 0.01 0.02 0.03 0.04 0.04 0.04 0.04 0.05 0.06 0.09 0.10 0.11 0.13
0.00 0.00 0.00 0.00 0.01 0.02 0.03 0.05 0.03 0.01 0.00 0.00 0.00 0.00 0.00 0.00 0.01 0.01 0.01 0.02 0.01 0.01 0.02 0.02 0.02 0.02 0.03 0.03 0.03 0.03 0.04 0.04 0.05 0.08 0.10 0.08 0.09 0.09 0.09 0.10 0.11 0.11 0.14 0.17
0.00 0.00 0.00 0.00 0.00 0.01 0.04 0.04 0.02 0.00 0.00 0.00 0.00 0.01 0.01 0.02 0.03 0.05 0.07 0.08 0.08 0.08 0.08 0.07 0.07 0.05 0.04 0.03 0.03 0.03 0.03 0.03 0.04 0.07 0.12 0.13 0.13 0.13 0.10 0.10 0.12 0.14 0.18 0.22
0.00 0.00 0.00 0.00 0.00 0.03 0.04 0.01 0.01 0.01 0.01 0.01 0.03 0.05 0.08 0.12 0.14 0.17 0.22 0.22 0.16 0.10 0.07 0.04 0.03 0.01 0.01 0.01 0.01 0.02 0.02 0.03 0.03 0.05 0.12 0.17 0.18 0.17 0.15 0.17 0.20 0.22 0.26 0.28
0.01 0.01 0.01 0.00 0.00 0.02 0.01 0.01 0.01 0.02 0.04 0.05 0.10 0.17 0.22 0.26 0.26 0.21 0.16 0.12 0.08 0.04 0.02 0.01 0.01 0.01 0.01 0.01 0.02 0.03 0.04 0.04 0.06 0.08 0.13 0.18 0.25 0.26 0.25 0.27 0.31 0.35 0.37 0.36
0.02 0.02 0.02 0.01 0.02 0.03 0.01 0.02 0.05 0.06 0.13 0.18 0.21 0.21 0.16 0.12 0.11 0.08 0.03 0.01 0.01 0.01 0.00 0.01 0.01 0.01 0.02 0.03 0.04 0.05 0.07 0.09 0.12 0.13 0.17 0.23 0.31 0.36 0.35 0.37 0.41 0.43 0.46 0.44
0.01 0.02 0.02 0.02 0.02 0.02 0.03 0.06 0.10 0.17 0.22 0.18 0.13 0.10 0.08 0.07 0.06 0.03 0.01 0.01 0.01 0.00 0.00 0.01 0.01 0.03 0.05 0.08 0.12 0.16 0.18 0.21 0.21 0.22 0.25 0.30 0.36 0.42 0.42 0.44 0.47 0.49 0.50 0.51
0.00 0.00 0.01 0.02 0.05 0.07 0.06 0.06 0.10 0.10 0.08 0.06 0.05 0.04 0.03 0.02 0.01 0.01 0.00 0.01 0.01 0.00 0.00 0.01 0.03 0.03 0.05 0.11 0.18 0.24 0.26 0.26 0.28 0.32 0.33 0.36 0.42 0.44 0.43 0.54 0.60 0.65 0.66 0.63
0.00 0.00 0.01 0.02 0.04 0.03 0.02 0.03 0.03 0.03 0.03 0.03 0.02 0.02 0.01 0.01 0.00 0.00 0.00 0.00 0.00 0.00 0.00 0.01 0.02 0.04 0.06 0.10 0.16 0.22 0.24 0.26 0.28 0.31 0.33 0.38 0.47 0.53 0.57 0.64 0.68 0.76 0.80 0.78
0.00 0.00 0.01 0.04 0.04 0.04 0.02 0.01 0.01 0.01 0.01 0.01 0.00 0.00 0.00 0.00 0.00 0.00 0.00 0.00 0.00 0.00 0.00 0.01 0.03 0.06 0.07 0.09 0.12 0.17 0.24 0.31 0.35 0.36 0.37 0.40 0.47 0.54 0.66 0.76 0.77 0.78 0.82 0.84
0.00 0.00 0.00 0.02 0.03 0.03 0.01 0.00 0.00 0.00 0.00 0.00 0.00 0.00 0.00 0.00 0.00 0.00 0.00 0.00 0.00 0.01 0.02 0.04 0.08 0.10 0.10 0.10 0.11 0.13 0.20 0.32 0.39 0.39 0.38 0.42 0.48 0.55 0.68 0.82 0.84 0.75 0.76 0.79
0.00 0.00 0.00 0.00 0.00 0.00 0.00 0.00 0.00 0.00 0.00 0.00 0.00 0.00 0.00 0.00 0.00 0.00 0.00 0.00 0.01 0.02 0.06 0.10 0.13 0.14 0.13 0.13 0.14 0.15 0.21 0.33 0.42 0.43 0.40 0.43 0.48 0.56 0.66 0.79 0.85 0.70 0.56 0.54

GEFSCGP_prec_meanprecacc_072.txt.gz
Total_Precipitation_Accumulation
0.00 0.00 0.01 0.01 0.01 0.01 0.01 0.04 0.09 0.15 0.09 0.08 0.16 0.32 0.38 0.39 0.41 0.43 0.42 0.32 0.31 0.37 0.51 0.71 1.02 1.35 1.73 2.36 3.03 3.23 2.82 2.39 1.99 1.70 1.44 1.19 0.99 0.93 0.87 0.74 0.69 0.69 0.71 0.74
0.01 0.02 0.01 0.01 0.02 0.04 0.04 0.06 0.11 0.14 0.08 0.10 0.15 0.30 0.46 0.52 0.53 0.48 0.40 0.32 0.35 0.51 0.73 1.01 1.39 1.61 1.84 2.26 2.72 2.70 2.26 1.81 1.33 1.04 0.93 0.82 0.70 0.60 0.51 0.48 0.52 0.49 0.55 0.63
0.01 0.03 0.02 0.01 0.02 0.05 0.07 0.07 0.11 0.13 0.06 0.09 0.15 0.38 0.61 0.66 0.52 0.39 0.27 0.21 0.26 0.43 0.74 1.19 1.69 1.94 2.06 2.07 1.95 1.79 1.36 0.88 0.66 0.50 0.48 0.43 0.41 0.41 0.33 0.30 0.33 0.32 0.35 0.39
0.01 0.02 0.01 0.02 0.03 0.04 0.07 0.05 0.04 0.04 0.05 0.16 0.22 0.59 0.80 0.68 0.53 0.42 0.29 0.23 0.23 0.37 0.74 1.28 1.60 1.64 1.64 1.52 1.17 0.89 0.69 0.45 0.33 0.30 0.33 0.34 0.31 0.31 0.27 0.24 0.25 0.24 0.24 0.27
0.02 0.02 0.02 0.01 0.02 0.03 0.04 0.03 0.03 0.04 0.07 0.16 0.29 0.54 0.78 0.65 0.59 0.43 0.30 0.24 0.26 0.34 0.53 0.78 0.87 0.93 0.94 0.84 0.68 0.54 0.47 0.37 0.36 0.36 0.39 0.40 0.29 0.24 0.22 0.21 0.20 0.21 0.24 0.26
0.04 0.03 0.02 0.02 0.02 0.02 0.03 0.04 0.08 0.14 0.21 0.41 0.42 0.48 0.76 0.71 0.55 0.32 0.22 0.22 0.18 0.24 0.36 0.48 0.47 0.44 0.42 0.34 0.35 0.37 0.44 0.48 0.44 0.36 0.32 0.32 0.28 0.24 0.21 0.18 0.19 0.20 0.22 0.26
0.09 0.06 0.06 0.04 0.04 0.04 0.04 0.07 0.21 0.44 0.68 0.69 0.40 0.41 0.70 0.50 0.32 0.21 0.15 0.14 0.18 0.28 0.35 0.40 0.44 0.41 0.32 0.25 0.26 0.26 0.25 0.29 0.31 0.28 0.27 0.27 0.27 0.25 0.23 0.20 0.16 0.17 0.19 0.23
0.13 0.13 0.08 0.05 0.03 0.04 0.05 0.07 0.13 0.23 0.21 0.25 0.25 0.61 0.77 0.35 0.24 0.15 0.10 0.09 0.15 0.21 0.25 0.26 0.26 0.24 0.19 0.14 0.11 0.10 0.11 0.12 0.13 0.14 0.16 0.18 0.22 0.20 0.20 0.23 0.19 0.17 0.20 0.24
0.03 0.04 0.03 0.03 0.03 0.04 0.04 0.04 0.05 0.04 0.04 0.12 0.29 0.51 0.45 0.26 0.17 0.10 0.06 0.05 0.07 0.09 0.09 0.10 0.08 0.07 0.07 0.05 0.04 0.04 0.05 0.05 0.06 0.07 0.09 0.12 0.16 0.18 0.18 0.20 0.19 0.19 0.25 0.26
0.01 0.01 0.01 0.02 0.02 0.04 0.04 0.04 0.03 0.02 0.03 0.07 0.20 0.47 0.50 0.27 0.17 0.08 0.04 0.03 0.03 0.03 0.03 0.04 0.04 0.03 0.02 0.02 0.02 0.02 0.02 0.03 0.03 0.04 0.05 0.07 0.09 0.13 0.15 0.15 0.18 0.21 0.21 0.22
0.00 0.00 0.01 0.02 0.03 0.03 0.03 0.02 0.02 0.02 0.02 0.03 0.11 0.27 0.20 0.11 0.05 0.02 0.01 0.01 0.01 0.01 0.01 0.01 0.01 0.01 0.01 0.01 0.01 0.01 0.02 0.02 0.02 0.02 0.03 0.04 0.06 0.08 0.11 0.14 0.16 0.19 0.19 0.21
0.00 0.00 0.01 0.02 0.04 0.02 0.01 0.01 0.01 0.02 0.02 0.02 0.05 0.11 0.08 0.05 0.02 0.01 0.01 0.00 0.00 0.00 0.00 0.00 0.00 0.00 0.00 0.01 0.01 0.01 0.02 0.02 0.02 0.02 0.02 0.03 0.05 0.06 0.07 0.09 0.13 0.16 0.19 0.18
0.00 0.00 0.01 0.08 0.13 0.07 0.02 0.01 0.02 0.01 0.02 0.02 0.09 0.16 0.06 0.03 0.01 0.01 0.00 0.00 0.00 0.00 0.00 0.00 0.00 0.00 0.00 0.01 0.01 0.01 0.01 0.01 0.01 0.01 0.02 0.02 0.02 0.04 0.05 0.07 0.10 0.13 0.17 0.18
0.00 0.00 0.01 0.08 0.10 0.05 0.03 0.03 0.03 0.02 0.02 0.03 0.08 0.14 0.05 0.01 0.00 0.00 0.00 0.00 0.00 0.00 0.00 0.00 0.00 0.00 0.00 0.00 0.00 0.00 0.00 0.00 0.00 0.01 0.01 0.02 0.02 0.03 0.05 0.06 0.09 0.12 0.15 0.17
0.01 0.00 0.00 0.00 0.01 0.01 0.02 0.04 0.04 0.02 0.02 0.04 0.04 0.04 0.03 0.01 0.00 0.00 0.00 0.00 0.00 0.00 0.00 0.00 0.00 0.00 0.00 0.00 0.00 0.00 0.01 0.01 0.02 0.03 0.04 0.04 0.04 0.04 0.05 0.06 0.09 0.11 0.12 0.13
0.00 0.00 0.00 0.00 0.01 0.02 0.03 0.05 0.03 0.01 0.00 0.00 0.00 0.01 0.00 0.00 0.01 0.01 0.01 0.02 0.01 0.01 0.02 0.02 0.02 0.02 0.03 0.03 0.03 0.03 0.04 0.04 0.05 0.08 0.10 0.08 0.09 0.09 0.09 0.10 0.11 0.12 0.14 0.17
0.01 0.01 0.00 0.00 0.01 0.01 0.05 0.04 0.02 0.00 0.00 0.00 0.00 0.01 0.01 0.02 0.03 0.05 0.07 0.08 0.08 0.08 0.08 0.07 0.07 0.05 0.04 0.03 0.03 0.03 0.03 0.03 0.04 0.07 0.12 0.13 0.13 0.13 0.10 0.10 0.12 0.14 0.18 0.22
0.00 0.00 0.00 0.00 0.00 0.04 0.04 0.01 0.01 0.01 0.01 0.01 0.03 0.05 0.08 0.12 0.14 0.17 0.22 0.22 0.16 0.10 0.07 0.04 0.03 0.01 0.01 0.01 0.01 0.02 0.02 0.03 0.03 0.05 0.12 0.17 0.18 0.17 0.15 0.17 0.20 0.23 0.26 0.29
0.02 0.01 0.01 0.00 0.00 0.02 0.02 0.02 0.02 0.03 0.05 0.07 0.10 0.17 0.22 0.26 0.26 0.22 0.16 0.12 0.08 0.04 0.02 0.01 0.01 0.01 0.01 0.01 0.02 0.03 0.04 0.04 0.06 0.08 0.13 0.18 0.25 0.26 0.25 0.27 0.31 0.35 0.38 0.37
0.03 0.03 0.02 0.01 0.02 0.04 0.04 0.06 0.08 0.08 0.16 0.19 0.22 0.21 0.16 0.12 0.11 0.08 0.03 0.01 0.01 0.01 0.00 0.01 0.01 0.01 0.02 0.03 0.04 0.05 0.07 0.09 0.12 0.13 0.17 0.23 0.31 0.36 0.35 0.37 0.41 0.43 0.47 0.45
0.06 0.04 0.03 0.02 0.03 0.03 0.07 0.10 0.14 0.22 0.28 0.20 0.15 0.12 0.09 0.07 0.06 0.03 0.01 0.01 0.01 0.00 0.00 0.01 0.01 0.03 0.05 0.08 0.12 0.16 0.18 0.21 0.21 0.22 0.25 0.30 0.36 0.43 0.42 0.44 0.47 0.50 0.51 0.52
0.06 0.05 0.03 0.04 0.09 0.11 0.10 0.12 0.20 0.20 0.13 0.08 0.06 0.05 0.04 0.03 0.01 0.01 0.00 0.01 0.01 0.00 0.00 0.01 0.03 0.03 0.05 0.11 0.18 0.24 0.26 0.26 0.28 0.32 0.33 0.36 0.42 0.44 0.43 0.54 0.61 0.66 0.68 0.65
0.03 0.03 0.04 0.04 0.09 0.10 0.08 0.09 0.10 0.09 0.07 0.05 0.04 0.03 0.02 0.01 0.00 0.00 0.00 0.00 0.00 0.00 0.00 0.01 0.02 0.04 0.06 0.10 0.16 0.22 0.24 0.26 0.28 0.31 0.33 0.38 0.47 0.53 0.57 0.64 0.68 0.77 0.82 0.79
0.03 0.02 0.02 0.06 0.06 0.08 0.06 0.04 0.03 0.03 0.03 0.02 0.01 0.01 0.00 0.00 0.00 0.00 0.00 0.00 0.00 0.00 0.01 0.01 0.03 0.06 0.07 0.09 0.12 0.17 0.24 0.31 0.35 0.36 0.37 0.41 0.47 0.54 0.66 0.77 0.77 0.79 0.83 0.85
0.01 0.01 0.01 0.03 0.04 0.05 0.04 0.02 0.01 0.01 0.00 0.00 0.00 0.00 0.00 0.00 0.00 0.00 0.00 0.00 0.01 0.01 0.02 0.04 0.08 0.10 0.11 0.10 0.11 0.13 0.20 0.32 0.39 0.39 0.39 0.43 0.48 0.55 0.69 0.82 0.85 0.76 0.77 0.79
0.01 0.00 0.01 0.03 0.04 0.05 0.06 0.03 0.01 0.00 0.00 0.00 0.00 0.00 0.00 0.00 0.00 0.00 0.00 0.00 0.01 0.02 0.06 0.10 0.13 0.14 0.13 0.13 0.14 0.16 0.21 0.33 0.43 0.43 0.41 0.43 0.48 0.56 0.66 0.79 0.85 0.70 0.57 0.55

GEFSCGP_prec_meanprecacc_078.txt.gz
Total_Precipitation_Accumulation
0.00 0.00 0.01 0.01 0.01 0.01 0.02 0.04 0.11 0.17 0.11 0.10 0.21 0.39 0.45 0.46 0.54 0.68 0.79 0.68 0.59 0.60 0.72 0.88 1.16 1.46 1.83 2.46 3.12 3.29 2.85 2.40 1.99 1.71 1.45 1.20 0.99 0.93 0.88 0.74 0.69 0.69 0.71 0.74
0.01 0.02 0.02 0.02 0.02 0.04 0.05 0.07 0.12 0.15 0.10 0.12 0.18 0.37 0.55 0.61 0.74 0.75 0.79 0.76 0.65 0.75 0.98 1.21 1.54 1.72 1.96 2.35 2.77 2.73 2.27 1.82 1.34 1.04 0.93 0.82 0.70 0.61 0.51 0.48 0.52 0.49 0.55 0.63
0.01 0.03 0.02 0.02 0.02 0.05 0.07 0.08 0.12 0.14 0.07 0.11 0.18 0.42 0.68 0.75 0.64 0.54 0.46 0.52 0.49 0.58 0.93 1.38 1.84 2.03 2.11 2.10 1.97 1.80 1.37 0.89 0.66 0.50 0.48 0.43 0.41 0.41 0.33 0.30 0.33 0.32 0.35 0.39
0.01 0.02 0.01 0.02 0.03 0.04 0.07 0.05 0.04 0.04 0.06 0.19 0.26 0.66 0.85 0.73 0.59 0.50 0.38 0.34 0.34 0.46 0.83 1.39 1.68 1.68 1.66 1.53 1.18 0.89 0.70 0.46 0.33 0.30 0.33 0.34 0.31 0.31 0.27 0.24 0.25 0.24 0.24 0.27
0.02 0.02 0.02 0.02 0.03 0.03 0.05 0.04 0.04 0.06 0.09 0.20 0.34 0.60 0.83 0.68 0.62 0.47 0.34 0.29 0.32 0.40 0.58 0.82 0.90 0.95 0.95 0.84 0.68 0.55 0.49 0.40 0.38 0.37 0.39 0.40 0.29 0.24 0.22 0.21 0.20 0.21 0.24 0.26
0.04 0.04 0.03 0.02 0.02 0.03 0.03 0.05 0.10 0.20 0.27 0.49 0.47 0.55 0.81 0.73 0.56 0.34 0.24 0.25 0.22 0.27 0.38 0.50 0.48 0.45 0.43 0.35 0.36 0.39 0.49 0.53 0.46 0.36 0.32 0.32 0.28 0.24 0.21 0.18 0.19 0.20 0.22 0.26
0.10 0.08 0.08 0.06 0.05 0.05 0.05 0.08 0.23 0.50 0.79 0.80 0.44 0.48 0.75 0.51 0.32 0.22 0.16 0.15 0.20 0.31 0.37 0.41 0.44 0.42 0.32 0.25 0.27 0.29 0.29 0.32 0.32 0.29 0.27 0.27 0.27 0.25 0.23 0.20 0.16 0.17 0.19 0.23
0.14 0.15 0.11 0.07 0.05 0.05 0.06 0.08 0.15 0.27 0.31 0.36 0.36 0.71 0.81 0.36 0.24 0.15 0.10 0.10 0.15 0.22 0.26 0.27 0.27 0.25 0.19 0.15 0.11 0.10 0.12 0.13 0.14 0.14 0.16 0.18 0.22 0.20 0.20 0.23 0.19 0.17 0.20 0.24
0.05 0.05 0.04 0.04 0.05 0.05 0.05 0.05 0.06 0.06 0.11 0.23 0.41 0.60 0.49 0.27 0.18 0.10 0.06 0.06 0.08 0.09 0.10 0.11 0.09 0.07 0.07 0.07 0.05 0.05 0.05 0.06 0.06 0.07 0.09 0.12 0.16 0.18 0.18 0.20 0.19 0.19 0.25 0.26
0.02 0.02 0.02 0.03 0.04 0.05 0.05 0.05 0.04 0.04 0.10 0.18 0.32 0.54 0.54 0.29 0.18 0.08 0.04 0.04 0.04 0.03 0.03 0.04 0.04 0.03 0.03 0.02 0.02 0.02 0.03 0.03 0.03 0.04 0.05 0.07 0.09 0.13 0.15 0.15 0.18 0.21 0.21 0.22
0.01 0.01 0.01 0.03 0.04 0.05 0.04 0.04 0.04 0.04 0.05 0.09 0.20 0.32 0.24 0.13 0.06 0.03 0.02 0.01 0.01 0.01 0.01 0.01 0.02 0.01 0.01 0.01 0.01 0.02 0.02 0.02 0.02 0.02 0.03 0.04 0.06 0.08 0.11 0.14 0.16 0.19 0.19 0.21
0.01 0.00 0.01 0.03 0.05 0.04 0.03 0.03 0.03 0.03 0.04 0.06 0.10 0.14 0.10 0.07 0.03 0.02 0.01 0.00 0.00 0.00 0.00 0.00 0.00 0.00 0.01 0.01 0.01 0.01 0.02 0.02 0.02 0.02 0.02 0.03 0.05 0.06 0.07 0.09 0.13 0.16 0.19 0.18
0.00 0.00 0.01 0.09 0.14 0.08 0.03 0.02 0.03 0.03 0.04 0.04 0.12 0.19 0.08 0.04 0.02 0.01 0.01 0.00 0.00 0.00 0.00 0.00 0.00 0.00 0.00 0.01 0.01 0.01 0.01 0.01 0.01 0.01 0.02 0.02 0.02 0.04 0.05 0.07 0.10 0.13 0.17 0.18
0.01 0.01 0.01 0.08 0.12 0.07 0.04 0.04 0.04 0.03 0.04 0.04 0.10 0.17 0.07 0.03 0.01 0.01 0.00 0.00 0.00 0.00 0.00 0.00 0.00 0.00 0.00 0.00 0.00 0.00 0.00 0.00 0.01 0.01 0.02 0.02 0.02 0.03 0.05 0.06 0.09 0.12 0.15 0.17
0.02 0.01 0.00 0.00 0.02 0.03 0.04 0.05 0.05 0.03 0.03 0.05 0.05 0.06 0.05 0.02 0.01 0.01 0.01 0.00 0.00 0.00 0.00 0.00 0.00 0.00 0.00 0.00 0.00 0.01 0.01 0.01 0.02 0.03 0.04 0.04 0.04 0.05 0.05 0.06 0.09 0.11 0.12 0.13
0.02 0.01 0.00 0.00 0.01 0.03 0.04 0.07 0.05 0.02 0.02 0.01 0.01 0.02 0.03 0.04 0.03 0.03 0.02 0.02 0.02 0.02 0.02 0.02 0.02 0.02 0.03 0.03 0.03 0.03 0.04 0.04 0.05 0.08 0.10 0.09 0.09 0.10 0.09 0.10 0.11 0.12 0.14 0.17
0.02 0.02 0.01 0.00 0.02 0.02 0.06 0.06 0.04 0.02 0.02 0.02 0.03 0.04 0.05 0.06 0.06 0.08 0.10 0.11 0.09 0.09 0.08 0.07 0.07 0.05 0.04 0.03 0.03 0.03 0.03 0.03 0.04 0.07 0.12 0.13 0.13 0.13 0.10 0.10 0.12 0.14 0.18 0.22
0.02 0.02 0.02 0.01 0.02 0.05 0.05 0.04 0.03 0.03 0.03 0.05 0.09 0.12 0.14 0.17 0.18 0.21 0.26 0.23 0.16 0.10 0.07 0.05 0.03 0.01 0.01 0.01 0.01 0.02 0.02 0.03 0.03 0.05 0.12 0.17 0.19 0.17 0.15 0.17 0.20 0.23 0.26 0.29
0.04 0.03 0.03 0.02 0.03 0.04 0.03 0.05 0.05 0.06 0.08 0.12 0.20 0.27 0.30 0.30 0.29 0.25 0.18 0.13 0.08 0.04 0.02 0.01 0.01 0.01 0.01 0.01 0.02 0.03 0.04 0.04 0.06 0.09 0.13 0.19 0.25 0.26 0.26 0.27 0.31 0.35 0.38 0.37
0.06 0.06 0.04 0.03 0.05 0.07 0.07 0.10 0.12 0.12 0.21 0.27 0.32 0.31 0.23 0.16 0.15 0.11 0.06 0.03 0.02 0.01 0.01 0.01 0.01 0.01 0.02 0.03 0.04 0.05 0.07 0.09 0.12 0.14 0.17 0.23 0.31 0.36 0.35 0.37 0.41 0.43 0.47 0.46
0.11 0.11 0.08 0.06 0.07 0.08 0.12 0.15 0.19 0.31 0.39 0.36 0.33 0.25 0.18 0.15 0.13 0.09 0.05 0.03 0.02 0.01 0.01 0.01 0.01 0.03 0.06 0.08 0.12 0.16 0.19 0.21 0.21 0.23 0.25 0.30 0.36 0.43 0.42 0.44 0.47 0.50 0.51 0.52
0.14 0.17 0.16 0.16 0.22 0.22 0.18 0.20 0.31 0.37 0.32 0.28 0.23 0.18 0.13 0.10 0.07 0.05 0.05 0.04 0.03 0.02 0.02 0.02 0.03 0.03 0.06 0.11 0.18 0.25 0.26 0.27 0.29 0.32 0.33 0.36 0.43 0.44 0.43 0.55 0.61 0.66 0.68 0.65
0.09 0.11 0.20 0.27 0.28 0.24 0.23 0.22 0.23 0.25 0.23 0.19 0.17 0.14 0.10 0.07 0.07 0.06 0.04 0.04 0.03 0.02 0.02 0.02 0.03 0.04 0.06 0.11 0.17 0.23 0.25 0.27 0.28 0.32 0.34 0.39 0.48 0.55 0.58 0.65 0.69 0.78 0.83 0.80
0.10 0.07 0.10 0.20 0.23 0.22 0.21 0.21 0.17 0.14 0.11 0.08 0.07 0.08 0.08 0.09 0.10 0.11 0.06 0.04 0.03 0.02 0.02 0.03 0.05 0.08 0.09 0.10 0.14 0.18 0.25 0.32 0.36 0.37 0.39 0.43 0.50 0.56 0.68 0.78 0.78 0.80 0.84 0.87
0.08 0.06 0.08 0.17 0.22 0.26 0.25 0.21 0.14 0.09 0.08 0.06 0.04 0.04 0.04 0.04 0.04 0.04 0.04 0.03 0.02 0.02 0.03 0.06 0.10 0.13 0.12 0.12 0.13 0.15 0.22 0.34 0.42 0.42 0.41 0.45 0.50 0.57 0.70 0.83 0.86 0.77 0.78 0.81
0.05 0.06 0.07 0.12 0.16 0.21 0.22 0.16 0.08 0.05 0.05 0.07 0.05 0.03 0.02 0.01 0.01 0.01 0.01 0.01 0.02 0.03 0.07 0.11 0.14 0.15 0.15 0.15 0.16 0.17 0.23 0.36 0.46 0.46 0.43 0.46 0.50 0.58 0.67 0.80 0.86 0.71 0.58 0.56

GEFSCGP_prec_meanprecacc_084.txt.gz
Total_Precipitation_Accumulation
0.00 0.00 0.01 0.01 0.01 0.01 0.02 0.05 0.11 0.18 0.11 0.11 0.21 0.40 0.45 0.47 0.55 0.71 0.84 0.77 0.73 0.74 0.89 1.07 1.35 1.66 2.06 2.67 3.30 3.42 2.94 2.46 2.03 1.74 1.47 1.22 1.00 0.93 0.88 0.74 0.69 0.69 0.71 0.74
0.01 0.02 0.02 0.02 0.02 0.04 0.05 0.07 0.12 0.15 0.10 0.12 0.18 0.37 0.55 0.61 0.74 0.76 0.81 0.81 0.73 0.84 1.08 1.35 1.69 1.88 2.14 2.52 2.90 2.84 2.35 1.86 1.37 1.06 0.95 0.83 0.70 0.61 0.51 0.48 0.52 0.49 0.55 0.63
0.01 0.03 0.02 0.02 0.02 0.05 0.07 0.08 0.12 0.14 0.07 0.11 0.18 0.42 0.68 0.76 0.65 0.55 0.48 0.55 0.55 0.65 1.01 1.50 1.97 2.16 2.25 2.24 2.06 1.86 1.42 0.92 0.68 0.51 0.48 0.43 0.41 0.41 0.33 0.30 0.33 0.32 0.35 0.39
0.01 0.02 0.01 0.02 0.03 0.04 0.07 0.05 0.05 0.05 0.06 0.19 0.26 0.66 0.86 0.74 0.60 0.50 0.39 0.36 0.37 0.49 0.88 1.52 1.79 1.76 1.73 1.61 1.23 0.93 0.72 0.48 0.34 0.31 0.34 0.34 0.31 0.31 0.27 0.24 0.25 0.24 0.24 0.27
0.02 0.02 0.02 0.02 0.03 0.04 0.05 0.04 0.04 0.06 0.09 0.20 0.34 0.61 0.83 0.68 0.63 0.48 0.35 0.30 0.34 0.42 0.62 0.89 0.96 0.99 0.99 0.87 0.70 0.57 0.51 0.41 0.39 0.38 0.39 0.40 0.29 0.24 0.22 0.21 0.20 0.21 0.24 0.26
0.04 0.04 0.03 0.02 0.02 0.03 0.03 0.05 0.10 0.20 0.28 0.49 0.47 0.55 0.81 0.73 0.56 0.34 0.24 0.25 0.23 0.28 0.41 0.52 0.51 0.47 0.45 0.36 0.38 0.40 0.50 0.54 0.46 0.37 0.32 0.32 0.28 0.24 0.21 0.18 0.19 0.20 0.22 0.26
0.10 0.08 0.08 0.06 0.05 0.05 0.05 0.08 0.23 0.51 0.79 0.80 0.45 0.48 0.75 0.51 0.32 0.22 0.16 0.15 0.21 0.31 0.37 0.42 0.46 0.44 0.34 0.26 0.28 0.29 0.30 0.32 0.32 0.29 0.28 0.27 0.27 0.25 0.23 0.20 0.16 0.17 0.19 0.23
0.14 0.15 0.11 0.07 0.05 0.05 0.06 0.08 0.15 0.28 0.31 0.36 0.36 0.71 0.81 0.36 0.25 0.15 0.10 0.10 0.15 0.23 0.27 0.27 0.28 0.27 0.21 0.17 0.14 0.12 0.13 0.13 0.14 0.14 0.17 0.18 0.22 0.20 0.20 0.23 0.19 0.17 0.20 0.24
0.06 0.05 0.04 0.04 0.05 0.06 0.05 0.05 0.06 0.06 0.11 0.23 0.41 0.60 0.49 0.27 0.18 0.10 0.06 0.06 0.08 0.10 0.11 0.12 0.09 0.09 0.09 0.08 0.07 0.08 0.06 0.06 0.06 0.07 0.10 0.12 0.17 0.19 0.18 0.20 0.19 0.19 0.25 0.26
0.03 0.02 0.02 0.03 0.04 0.06 0.06 0.05 0.04 0.04 0.10 0.18 0.32 0.55 0.55 0.29 0.18 0.08 0.04 0.04 0.04 0.03 0.04 0.04 0.05 0.04 0.03 0.02 0.03 0.03 0.03 0.03 0.04 0.04 0.05 0.07 0.10 0.13 0.15 0.15 0.18 0.21 0.21 0.22
0.02 0.01 0.02 0.03 0.04 0.05 0.04 0.04 0.04 0.04 0.05 0.09 0.20 0.32 0.24 0.13 0.06 0.03 0.02 0.01 0.01 0.01 0.01 0.01 0.02 0.02 0.02 0.02 0.01 0.02 0.02 0.02 0.02 0.02 0.03 0.04 0.06 0.08 0.11 0.14 0.16 0.19 0.19 0.21
0.01 0.01 0.01 0.03 0.05 0.04 0.03 0.03 0.04 0.04 0.04 0.06 0.10 0.14 0.10 0.07 0.03 0.02 0.01 0.01 0.01 0.01 0.00 0.00 0.00 0.01 0.01 0.01 0.01 0.02 0.02 0.02 0.02 0.02 0.02 0.03 0.05 0.06 0.07 0.09 0.13 0.16 0.19 0.18
0.01 0.01 0.01 0.09 0.14 0.08 0.04 0.02 0.03 0.03 0.04 0.05 0.13 0.19 0.08 0.05 0.02 0.01 0.01 0.00 0.01 0.01 0.01 0.01 0.01 0.01 0.01 0.01 0.02 0.02 0.02 0.02 0.02 0.02 0.02 0.02 0.02 0.04 0.05 0.07 0.10 0.13 0.17 0.18
0.01 0.01 0.01 0.08 0.12 0.07 0.04 0.04 0.04 0.03 0.04 0.05 0.10 0.17 0.07 0.03 0.02 0.01 0.01 0.00 0.00 0.00 0.01 0.01 0.01 0.01 0.01 0.02 0.02 0.02 0.02 0.03 0.02 0.02 0.02 0.03 0.02 0.03 0.05 0.07 0.09 0.12 0.16 0.17
0.02 0.01 0.01 0.01 0.02 0.03 0.04 0.05 0.05 0.03 0.03 0.05 0.05 0.06 0.05 0.03 0.02 0.01 0.01 0.01 0.01 0.01 0.01 0.01 0.01 0.01 0.02 0.03 0.03 0.04 0.04 0.04 0.03 0.04 0.05 0.05 0.05 0.05 0.05 0.07 0.10 0.11 0.12 0.13
0.02 0.01 0.01 0.00 0.02 0.03 0.04 0.07 0.06 0.03 0.02 0.01 0.02 0.02 0.03 0.04 0.03 0.03 0.03 0.02 0.02 0.02 0.03 0.03 0.03 0.03 0.03 0.03 0.04 0.04 0.04 0.05 0.06 0.08 0.10 0.09 0.10 0.10 0.10 0.11 0.11 0.12 0.14 0.18
0.03 0.03 0.01 0.00 0.02 0.02 0.06 0.06 0.04 0.03 0.03 0.03 0.03 0.04 0.05 0.06 0.07 0.09 0.12 0.12 0.10 0.09 0.09 0.08 0.07 0.06 0.05 0.04 0.03 0.04 0.04 0.05 0.05 0.07 0.12 0.13 0.14 0.13 0.11 0.11 0.12 0.15 0.19 0.23
0.03 0.03 0.02 0.01 0.02 0.05 0.06 0.04 0.04 0.04 0.03 0.05 0.10 0.13 0.15 0.18 0.20 0.23 0.28 0.26 0.18 0.12 0.08 0.05 0.03 0.02 0.02 0.02 0.02 0.02 0.03 0.03 0.04 0.06 0.12 0.17 0.19 0.18 0.16 0.17 0.20 0.23 0.27 0.29
0.04 0.04 0.03 0.03 0.03 0.04 0.04 0.05 0.06 0.07 0.09 0.13 0.21 0.28 0.31 0.32 0.31 0.26 0.20 0.15 0.10 0.06 0.03 0.02 0.01 0.01 0.01 0.02 0.02 0.04 0.04 0.05 0.06 0.09 0.14 0.19 0.25 0.27 0.26 0.27 0.31 0.35 0.38 0.37
0.07 0.07 0.05 0.04 0.05 0.07 0.07 0.11 0.14 0.15 0.23 0.29 0.33 0.33 0.25 0.19 0.18 0.13 0.08 0.05 0.03 0.02 0.02 0.02 0.02 0.02 0.03 0.04 0.05 0.06 0.08 0.10 0.13 0.14 0.18 0.24 0.32 0.37 0.36 0.37 0.41 0.44 0.47 0.46
0.12 0.12 0.08 0.06 0.08 0.09 0.12 0.16 0.21 0.35 0.41 0.38 0.34 0.27 0.21 0.18 0.16 0.13 0.08 0.05 0.04 0.02 0.02 0.02 0.03 0.04 0.07 0.09 0.13 0.17 0.20 0.22 0.22 0.24 0.26 0.31 0.37 0.44 0.43 0.46 0.48 0.51 0.52 0.53
0.15 0.17 0.16 0.16 0.23 0.23 0.19 0.22 0.33 0.40 0.34 0.29 0.25 0.20 0.16 0.13 0.11 0.09 0.08 0.07 0.05 0.04 0.04 0.04 0.05 0.05 0.08 0.13 0.20 0.26 0.28 0.28 0.30 0.34 0.35 0.38 0.44 0.45 0.44 0.55 0.62 0.67 0.69 0.66
0.09 0.12 0.20 0.27 0.28 0.25 0.23 0.23 0.26 0.28 0.26 0.22 0.19 0.16 0.13 0.10 0.10 0.08 0.07 0.07 0.06 0.05 0.05 0.05 0.06 0.07 0.08 0.13 0.19 0.25 0.27 0.29 0.31 0.34 0.36 0.41 0.50 0.56 0.60 0.66 0.70 0.80 0.85 0.82
0.10 0.08 0.11 0.21 0.24 0.23 0.22 0.22 0.19 0.17 0.14 0.10 0.09 0.10 0.11 0.11 0.13 0.13 0.08 0.06 0.05 0.04 0.04 0.05 0.07 0.10 0.12 0.14 0.17 0.21 0.27 0.34 0.38 0.39 0.41 0.46 0.52 0.58 0.69 0.79 0.79 0.81 0.85 0.88
0.08 0.07 0.09 0.19 0.25 0.29 0.29 0.24 0.18 0.13 0.11 0.09 0.07 0.08 0.08 0.08 0.07 0.08 0.09 0.07 0.05 0.04 0.04 0.07 0.11 0.14 0.14 0.14 0.15 0.17 0.24 0.36 0.43 0.44 0.43 0.47 0.52 0.59 0.71 0.84 0.87 0.78 0.79 0.82
0.06 0.06 0.08 0.14 0.19 0.26 0.27 0.21 0.12 0.09 0.10 0.12 0.10 0.08 0.08 0.05 0.02 0.02 0.02 0.03 0.03 0.04 0.07 0.12 0.15 0.16 0.16 0.16 0.17 0.19 0.24 0.38 0.48 0.48 0.46 0.48 0.52 0.60 0.70 0.83 0.88 0.73 0.60 0.59

GEFSCGP_prec_meanprecacc_090.txt.gz
Total_Precipitation_Accumulation
0.00 0.00 0.01 0.01 0.01 0.01 0.02 0.05 0.11 0.18 0.11 0.11 0.21 0.40 0.45 0.47 0.56 0.71 0.84 0.79 0.79 0.79 0.94 1.14 1.44 1.80 2.21 2.81 3.46 3.58 3.11 2.61 2.16 1.83 1.53 1.25 1.04 0.96 0.91 0.77 0.71 0.70 0.72 0.74
0.01 0.02 0.02 0.02 0.02 0.04 0.05 0.07 0.12 0.15 0.10 0.12 0.18 0.37 0.55 0.62 0.74 0.76 0.81 0.82 0.76 0.88 1.12 1.39 1.76 1.99 2.28 2.64 3.01 2.96 2.48 1.98 1.47 1.15 1.02 0.86 0.72 0.63 0.53 0.49 0.52 0.49 0.55 0.63
0.01 0.03 0.02 0.02 0.02 0.05 0.07 0.08 0.12 0.14 0.07 0.11 0.18 0.42 0.68 0.76 0.65 0.55 0.48 0.56 0.57 0.67 1.03 1.54 2.03 2.23 2.34 2.34 2.15 1.95 1.52 1.00 0.75 0.57 0.52 0.45 0.43 0.42 0.34 0.31 0.33 0.32 0.35 0.39
0.01 0.02 0.01 0.02 0.03 0.04 0.07 0.05 0.05 0.05 0.06 0.19 0.26 0.66 0.86 0.74 0.60 0.50 0.39 0.36 0.37 0.50 0.90 1.55 1.83 1.81 1.78 1.68 1.30 1.00 0.81 0.54 0.39 0.35 0.36 0.37 0.33 0.33 0.28 0.24 0.25 0.24 0.24 0.27
0.02 0.02 0.02 0.02 0.03 0.04 0.05 0.04 0.04 0.06 0.09 0.20 0.34 0.61 0.83 0.68 0.63 0.48 0.35 0.30 0.34 0.43 0.63 0.91 0.99 1.03 1.02 0.92 0.75 0.61 0.58 0.47 0.42 0.40 0.41 0.43 0.31 0.25 0.22 0.21 0.20 0.21 0.24 0.26
0.04 0.04 0.03 0.03 0.02 0.03 0.03 0.05 0.10 0.20 0.28 0.50 0.47 0.55 0.81 0.73 0.56 0.34 0.24 0.25 0.23 0.28 0.41 0.54 0.53 0.51 0.47 0.39 0.40 0.43 0.55 0.58 0.48 0.38 0.34 0.34 0.29 0.24 0.21 0.18 0.19 0.20 0.22 0.26
0.10 0.08 0.08 0.06 0.05 0.05 0.05 0.08 0.24 0.51 0.80 0.80 0.45 0.48 0.75 0.51 0.32 0.22 0.16 0.15 0.21 0.31 0.37 0.43 0.48 0.45 0.35 0.28 0.29 0.31 0.33 0.34 0.33 0.30 0.29 0.28 0.28 0.25 0.23 0.21 0.17 0.17 0.19 0.23
0.14 0.15 0.11 0.07 0.05 0.05 0.06 0.08 0.16 0.28 0.32 0.37 0.36 0.71 0.81 0.36 0.25 0.15 0.10 0.10 0.15 0.23 0.27 0.28 0.29 0.28 0.22 0.17 0.14 0.13 0.14 0.15 0.15 0.16 0.18 0.19 0.23 0.21 0.20 0.23 0.19 0.17 0.20 0.24
0.06 0.05 0.04 0.04 0.05 0.06 0.06 0.05 0.06 0.06 0.11 0.23 0.41 0.60 0.49 0.27 0.18 0.10 0.06 0.06 0.08 0.10 0.11 0.12 0.10 0.09 0.09 0.08 0.08 0.09 0.08 0.07 0.07 0.08 0.11 0.13 0.17 0.19 0.18 0.20 0.19 0.19 0.25 0.26
0.03 0.02 0.02 0.03 0.04 0.06 0.06 0.05 0.04 0.04 0.10 0.18 0.32 0.55 0.55 0.29 0.18 0.08 0.04 0.04 0.04 0.03 0.04 0.04 0.05 0.04 0.03 0.03 0.03 0.04 0.04 0.04 0.05 0.05 0.06 0.07 0.10 0.14 0.16 0.15 0.18 0.21 0.21 0.22
0.02 0.01 0.02 0.03 0.04 0.05 0.04 0.04 0.04 0.04 0.05 0.09 0.20 0.33 0.24 0.13 0.06 0.03 0.02 0.01 0.01 0.01 0.01 0.01 0.02 0.02 0.02 0.02 0.01 0.02 0.02 0.02 0.03 0.03 0.03 0.04 0.06 0.08 0.11 0.14 0.16 0.19 0.19 0.21
0.02 0.01 0.01 0.04 0.05 0.04 0.03 0.03 0.04 0.04 0.04 0.06 0.10 0.14 0.10 0.07 0.03 0.02 0.01 0.01 0.01 0.01 0.00 0.00 0.00 0.01 0.01 0.01 0.01 0.02 0.02 0.02 0.03 0.03 0.03 0.03 0.05 0.06 0.08 0.10 0.13 0.17 0.19 0.19
0.01 0.01 0.02 0.09 0.15 0.09 0.04 0.02 0.03 0.03 0.04 0.05 0.13 0.19 0.08 0.05 0.02 0.01 0.01 0.01 0.01 0.01 0.01 0.01 0.01 0.01 0.01 0.02 0.02 0.02 0.03 0.03 0.02 0.02 0.02 0.03 0.03 0.04 0.06 0.07 0.10 0.14 0.17 0.19
0.02 0.01 0.02 0.09 0.12 0.07 0.04 0.04 0.04 0.03 0.04 0.05 0.10 0.17 0.07 0.03 0.02 0.01 0.01 0.01 0.01 0.01 0.01 0.01 0.01 0.01 0.02 0.03 0.03 0.03 0.03 0.03 0.03 0.02 0.03 0.04 0.03 0.04 0.06 0.08 0.10 0.13 0.16 0.18
0.03 0.01 0.01 0.01 0.02 0.03 0.04 0.05 0.05 0.03 0.03 0.05 0.05 0.06 0.05 0.03 0.02 0.02 0.01 0.01 0.01 0.01 0.01 0.01 0.01 0.01 0.02 0.03 0.04 0.05 0.05 0.05 0.04 0.04 0.06 0.06 0.06 0.07 0.07 0.09 0.12 0.13 0.14 0.14
0.03 0.02 0.01 0.00 0.02 0.03 0.04 0.07 0.06 0.03 0.02 0.01 0.02 0.03 0.03 0.04 0.03 0.03 0.03 0.03 0.02 0.03 0.03 0.04 0.03 0.03 0.04 0.04 0.04 0.05 0.06 0.06 0.07 0.09 0.11 0.10 0.10 0.11 0.11 0.12 0.13 0.13 0.15 0.18
0.04 0.04 0.02 0.01 0.02 0.02 0.06 0.06 0.04 0.03 0.03 0.03 0.04 0.05 0.05 0.06 0.08 0.10 0.12 0.13 0.10 0.10 0.09 0.09 0.08 0.06 0.05 0.05 0.05 0.05 0.06 0.06 0.06 0.08 0.13 0.14 0.15 0.14 0.12 0.12 0.13 0.16 0.20 0.24
0.04 0.05 0.04 0.02 0.03 0.06 0.06 0.04 0.04 0.04 0.03 0.06 0.10 0.13 0.15 0.18 0.21 0.23 0.28 0.27 0.19 0.13 0.09 0.06 0.04 0.03 0.03 0.03 0.03 0.04 0.04 0.04 0.05 0.07 0.13 0.18 0.19 0.18 0.16 0.17 0.20 0.24 0.27 0.30
0.05 0.05 0.05 0.04 0.04 0.05 0.04 0.05 0.06 0.08 0.10 0.13 0.21 0.29 0.32 0.33 0.32 0.27 0.21 0.16 0.11 0.07 0.04 0.03 0.03 0.03 0.02 0.03 0.04 0.05 0.05 0.06 0.07 0.10 0.15 0.20 0.26 0.27 0.26 0.27 0.32 0.35 0.38 0.37
0.08 0.08 0.06 0.06 0.07 0.08 0.07 0.11 0.14 0.15 0.25 0.29 0.33 0.33 0.26 0.20 0.19 0.15 0.09 0.06 0.05 0.03 0.03 0.03 0.03 0.03 0.04 0.04 0.06 0.07 0.09 0.11 0.14 0.15 0.19 0.25 0.33 0.37 0.36 0.38 0.42 0.44 0.48 0.46
0.14 0.14 0.10 0.09 0.10 0.09 0.13 0.16 0.21 0.36 0.43 0.38 0.34 0.27 0.21 0.18 0.18 0.15 0.11 0.07 0.05 0.04 0.04 0.04 0.04 0.05 0.08 0.10 0.14 0.18 0.21 0.23 0.24 0.26 0.28 0.32 0.39 0.45 0.44 0.46 0.49 0.52 0.52 0.53
0.17 0.20 0.19 0.19 0.26 0.24 0.19 0.22 0.34 0.42 0.34 0.30 0.25 0.21 0.17 0.14 0.12 0.11 0.10 0.09 0.08 0.07 0.06 0.05 0.07 0.07 0.09 0.14 0.20 0.27 0.29 0.30 0.32 0.36 0.37 0.40 0.46 0.47 0.45 0.56 0.62 0.67 0.69 0.66
0.10 0.12 0.21 0.28 0.30 0.26 0.24 0.23 0.26 0.28 0.27 0.22 0.20 0.17 0.14 0.12 0.12 0.10 0.08 0.09 0.08 0.08 0.07 0.07 0.08 0.09 0.10 0.14 0.21 0.27 0.30 0.32 0.33 0.36 0.38 0.43 0.52 0.58 0.61 0.67 0.71 0.81 0.85 0.82
0.11 0.08 0.11 0.21 0.24 0.23 0.23 0.23 0.19 0.17 0.15 0.12 0.11 0.13 0.13 0.14 0.15 0.16 0.10 0.08 0.07 0.05 0.06 0.07 0.09 0.13 0.15 0.16 0.19 0.24 0.30 0.37 0.41 0.42 0.43 0.47 0.53 0.60 0.70 0.80 0.79 0.81 0.86 0.88
0.08 0.07 0.09 0.19 0.25 0.30 0.29 0.25 0.19 0.14 0.13 0.11 0.10 0.11 0.11 0.11 0.10 0.11 0.11 0.08 0.06 0.05 0.05 0.08 0.12 0.15 0.16 0.16 0.17 0.20 0.26 0.38 0.45 0.46 0.45 0.49 0.53 0.60 0.72 0.85 0.88 0.79 0.79 0.83
0.06 0.07 0.08 0.15 0.20 0.27 0.29 0.23 0.15 0.12 0.13 0.15 0.15 0.11 0.11 0.09 0.05 0.04 0.04 0.04 0.05 0.06 0.09 0.13 0.16 0.17 0.16 0.17 0.18 0.20 0.26 0.40 0.50 0.50 0.47 0.49 0.53 0.60 0.71 0.83 0.88 0.74 0.61 0.59

GEFSCGP_prec_meanprecacc_096.txt.gz
Total_Precipitation_Accumulation
0.00 0.00 0.01 0.01 0.01 0.01 0.02 0.05 0.11 0.18 0.11 0.11 0.21 0.40 0.46 0.47 0.56 0.72 0.85 0.81 0.84 0.88 1.04 1.22 1.52 1.93 2.34 2.95 3.60 3.72 3.24 2.74 2.29 1.94 1.63 1.33 1.08 0.99 0.94 0.80 0.73 0.71 0.73 0.75
0.01 0.02 0.02 0.02 0.02 0.04 0.05 0.07 0.12 0.16 0.10 0.12 0.19 0.38 0.55 0.62 0.74 0.76 0.82 0.84 0.79 0.94 1.19 1.47 1.82 2.08 2.36 2.76 3.14 3.08 2.61 2.09 1.57 1.24 1.11 0.95 0.79 0.68 0.58 0.52 0.54 0.50 0.56 0.63
0.01 0.03 0.02 0.02 0.02 0.05 0.07 0.08 0.12 0.14 0.07 0.12 0.18 0.44 0.69 0.76 0.65 0.55 0.48 0.57 0.58 0.69 1.09 1.63 2.10 2.31 2.42 2.45 2.26 2.04 1.63 1.11 0.85 0.66 0.60 0.53 0.51 0.48 0.39 0.34 0.35 0.33 0.35 0.39
0.01 0.02 0.01 0.02 0.03 0.04 0.07 0.05 0.05 0.05 0.06 0.19 0.27 0.68 0.88 0.76 0.61 0.51 0.39 0.37 0.38 0.52 0.93 1.60 1.88 1.89 1.85 1.77 1.40 1.08 0.91 0.64 0.48 0.43 0.43 0.43 0.38 0.38 0.31 0.27 0.26 0.24 0.24 0.27
0.02 0.02 0.02 0.02 0.03 0.04 0.05 0.04 0.04 0.06 0.10 0.22 0.37 0.63 0.86 0.71 0.64 0.48 0.35 0.31 0.35 0.44 0.65 0.95 1.02 1.07 1.07 0.98 0.82 0.70 0.68 0.55 0.49 0.47 0.47 0.48 0.34 0.27 0.24 0.22 0.21 0.21 0.24 0.26
0.04 0.04 0.03 0.03 0.02 0.03 0.03 0.05 0.10 0.21 0.31 0.58 0.56 0.59 0.83 0.74 0.56 0.34 0.24 0.26 0.23 0.29 0.42 0.56 0.56 0.53 0.51 0.43 0.46 0.49 0.61 0.64 0.53 0.43 0.38 0.37 0.32 0.27 0.23 0.19 0.19 0.20 0.22 0.26
0.10 0.08 0.08 0.06 0.05 0.05 0.05 0.08 0.25 0.57 0.91 0.96 0.55 0.52 0.76 0.51 0.32 0.22 0.16 0.15 0.21 0.31 0.38 0.44 0.50 0.49 0.39 0.31 0.34 0.37 0.38 0.38 0.36 0.34 0.33 0.31 0.32 0.28 0.24 0.21 0.17 0.17 0.20 0.23
0.14 0.15 0.11 0.07 0.05 0.05 0.06 0.08 0.17 0.33 0.37 0.42 0.41 0.75 0.82 0.36 0.25 0.15 0.10 0.10 0.15 0.23 0.27 0.28 0.30 0.31 0.26 0.20 0.18 0.18 0.20 0.18 0.18 0.19 0.22 0.23 0.26 0.22 0.21 0.24 0.20 0.18 0.20 0.24
0.06 0.06 0.04 0.04 0.05 0.06 0.06 0.05 0.06 0.07 0.11 0.25 0.44 0.64 0.52 0.29 0.18 0.10 0.06 0.06 0.08 0.10 0.11 0.12 0.10 0.10 0.11 0.10 0.11 0.12 0.12 0.11 0.11 0.13 0.16 0.16 0.19 0.20 0.20 0.21 0.20 0.19 0.25 0.26
0.03 0.02 0.03 0.03 0.05 0.06 0.06 0.05 0.04 0.04 0.11 0.22 0.38 0.61 0.62 0.34 0.19 0.09 0.04 0.04 0.04 0.03 0.04 0.05 0.05 0.05 0.04 0.03 0.05 0.07 0.09 0.11 0.11 0.11 0.10 0.09 0.12 0.15 0.17 0.16 0.18 0.21 0.21 0.22
0.02 0.01 0.02 0.03 0.05 0.05 0.05 0.04 0.04 0.04 0.05 0.11 0.26 0.42 0.33 0.19 0.07 0.04 0.02 0.01 0.01 0.01 0.01 0.02 0.02 0.02 0.02 0.03 0.03 0.04 0.05 0.06 0.08 0.07 0.08 0.08 0.09 0.10 0.12 0.15 0.17 0.19 0.20 0.21
0.02 0.01 0.01 0.04 0.06 0.05 0.04 0.03 0.04 0.05 0.05 0.06 0.12 0.18 0.12 0.09 0.04 0.03 0.01 0.01 0.01 0.01 0.00 0.00 0.00 0.01 0.01 0.01 0.02 0.03 0.04 0.04 0.06 0.06 0.06 0.06 0.10 0.10 0.10 0.11 0.15 0.18 0.20 0.19
0.02 0.01 0.02 0.11 0.18 0.11 0.05 0.03 0.04 0.04 0.04 0.05 0.15 0.23 0.11 0.06 0.03 0.02 0.01 0.01 0.01 0.01 0.01 0.01 0.01 0.01 0.01 0.02 0.03 0.04 0.05 0.05 0.06 0.06 0.06 0.07 0.09 0.11 0.11 0.11 0.13 0.16 0.19 0.20
0.03 0.02 0.02 0.12 0.18 0.15 0.11 0.07 0.06 0.04 0.05 0.06 0.11 0.21 0.13 0.08 0.04 0.02 0.01 0.01 0.01 0.01 0.01 0.01 0.01 0.01 0.02 0.03 0.04 0.05 0.05 0.07 0.06 0.08 0.10 0.12 0.13 0.15 0.14 0.12 0.13 0.15 0.18 0.20
0.04 0.03 0.02 0.01 0.04 0.07 0.09 0.09 0.07 0.05 0.05 0.07 0.06 0.09 0.11 0.14 0.09 0.03 0.02 0.01 0.01 0.01 0.01 0.01 0.01 0.01 0.02 0.03 0.04 0.05 0.06 0.06 0.06 0.07 0.10 0.11 0.12 0.14 0.13 0.14 0.16 0.16 0.15 0.16
0.04 0.02 0.01 0.01 0.03 0.04 0.06 0.09 0.07 0.04 0.03 0.03 0.02 0.04 0.07 0.12 0.11 0.09 0.06 0.04 0.03 0.03 0.03 0.04 0.04 0.04 0.04 0.04 0.04 0.05 0.07 0.08 0.09 0.12 0.14 0.12 0.13 0.15 0.14 0.15 0.16 0.16 0.17 0.21
0.05 0.04 0.04 0.03 0.04 0.04 0.07 0.07 0.04 0.03 0.03 0.03 0.04 0.06 0.08 0.11 0.13 0.12 0.13 0.13 0.10 0.10 0.10 0.09 0.08 0.07 0.06 0.06 0.06 0.06 0.07 0.07 0.08 0.10 0.14 0.15 0.17 0.18 0.16 0.15 0.17 0.19 0.24 0.28
0.10 0.10 0.07 0.04 0.07 0.12 0.08 0.05 0.05 0.04 0.04 0.06 0.10 0.14 0.17 0.21 0.23 0.25 0.29 0.27 0.19 0.13 0.10 0.07 0.05 0.06 0.09 0.07 0.06 0.06 0.08 0.09 0.08 0.10 0.16 0.21 0.24 0.24 0.23 0.24 0.26 0.29 0.32 0.34
0.14 0.17 0.13 0.09 0.11 0.11 0.08 0.08 0.07 0.09 0.11 0.15 0.23 0.31 0.33 0.34 0.34 0.29 0.22 0.16 0.11 0.07 0.05 0.05 0.04 0.05 0.06 0.07 0.06 0.07 0.09 0.11 0.15 0.21 0.25 0.29 0.34 0.37 0.37 0.39 0.41 0.44 0.46 0.42
0.16 0.16 0.16 0.12 0.15 0.18 0.16 0.20 0.19 0.19 0.32 0.32 0.38 0.35 0.26 0.20 0.23 0.19 0.10 0.07 0.05 0.04 0.04 0.05 0.06 0.06 0.08 0.09 0.09 0.12 0.15 0.19 0.22 0.27 0.33 0.40 0.48 0.54 0.52 0.53 0.56 0.56 0.58 0.54
0.24 0.24 0.20 0.16 0.19 0.17 0.20 0.24 0.27 0.46 0.57 0.41 0.37 0.29 0.22 0.19 0.20 0.17 0.11 0.08 0.06 0.05 0.05 0.05 0.06 0.08 0.11 0.14 0.19 0.26 0.29 0.30 0.30 0.33 0.37 0.43 0.50 0.58 0.58 0.60 0.63 0.64 0.63 0.62
0.35 0.33 0.30 0.28 0.36 0.35 0.26 0.29 0.44 0.56 0.41 0.32 0.27 0.22 0.18 0.16 0.13 0.12 0.11 0.09 0.08 0.08 0.07 0.07 0.09 0.10 0.12 0.17 0.24 0.31 0.36 0.35 0.37 0.41 0.42 0.45 0.52 0.54 0.53 0.64 0.71 0.78 0.81 0.77
0.37 0.33 0.36 0.40 0.41 0.35 0.29 0.30 0.31 0.33 0.32 0.25 0.21 0.19 0.16 0.13 0.13 0.11 0.09 0.09 0.08 0.09 0.08 0.08 0.10 0.12 0.14 0.18 0.25 0.32 0.34 0.36 0.37 0.41 0.43 0.49 0.57 0.63 0.66 0.73 0.78 0.89 0.96 0.93
0.32 0.24 0.26 0.38 0.38 0.30 0.27 0.28 0.25 0.20 0.18 0.13 0.11 0.14 0.15 0.15 0.17 0.17 0.11 0.08 0.07 0.06 0.06 0.08 0.11 0.15 0.17 0.19 0.23 0.28 0.34 0.42 0.46 0.47 0.48 0.53 0.59 0.65 0.75 0.85 0.85 0.87 0.93 0.96
0.21 0.19 0.21 0.33 0.40 0.38 0.34 0.30 0.25 0.19 0.15 0.12 0.11 0.11 0.11 0.11 0.11 0.13 0.12 0.09 0.07 0.05 0.06 0.08 0.13 0.16 0.17 0.17 0.19 0.22 0.29 0.42 0.50 0.50 0.50 0.54 0.59 0.65 0.78 0.90 0.92 0.83 0.83 0.87
0.12 0.14 0.18 0.28 0.31 0.36 0.38 0.28 0.20 0.15 0.14 0.17 0.16 0.12 0.12 0.10 0.06 0.04 0.05 0.05 0.06 0.07 0.09 0.14 0.16 0.17 0.16 0.17 0.19 0.21 0.28 0.42 0.52 0.53 0.50 0.52 0.55 0.63 0.73 0.86 0.91 0.77 0.64 0.62

GEFSCGP_prec_meanprecacc_102.txt.gz
Total_Precipitation_Accumulation
0.00 0.00 0.01 0.01 0.01 0.02 0.02 0.05 0.11 0.19 0.12 0.12 0.22 0.41 0.47 0.50 0.58 0.74 0.87 0.85 0.89 0.99 1.24 1.46 1.73 2.19 2.69 3.30 3.99 4.08 3.54 2.93 2.43 2.00 1.67 1.36 1.12 1.01 0.95 0.81 0.73 0.71 0.73 0.75
0.01 0.02 0.02 0.02 0.02 0.04 0.05 0.07 0.12 0.16 0.10 0.13 0.19 0.40 0.57 0.66 0.78 0.78 0.83 0.86 0.82 1.00 1.33 1.65 1.98 2.31 2.64 3.06 3.51 3.42 2.88 2.28 1.69 1.30 1.14 0.98 0.81 0.69 0.58 0.52 0.54 0.50 0.56 0.63
0.01 0.03 0.02 0.02 0.02 0.05 0.07 0.08 0.12 0.14 0.07 0.12 0.19 0.47 0.73 0.82 0.69 0.56 0.49 0.58 0.59 0.72 1.16 1.75 2.23 2.46 2.60 2.66 2.51 2.32 1.85 1.28 0.97 0.73 0.64 0.55 0.52 0.49 0.39 0.34 0.35 0.33 0.35 0.39
0.01 0.02 0.01 0.02 0.03 0.04 0.07 0.05 0.05 0.05 0.06 0.20 0.29 0.73 0.95 0.84 0.67 0.53 0.41 0.38 0.40 0.54 0.97 1.68 1.97 1.98 1.94 1.88 1.54 1.27 1.07 0.76 0.57 0.48 0.46 0.44 0.38 0.38 0.32 0.27 0.26 0.24 0.24 0.27
0.02 0.02 0.02 0.02 0.03 0.04 0.05 0.04 0.04 0.07 0.11 0.25 0.42 0.70 0.96 0.80 0.70 0.53 0.37 0.33 0.37 0.46 0.68 1.00 1.05 1.14 1.14 1.06 0.92 0.82 0.81 0.65 0.56 0.51 0.50 0.49 0.34 0.28 0.25 0.23 0.21 0.21 0.24 0.26
0.04 0.04 0.03 0.03 0.02 0.03 0.04 0.05 0.11 0.23 0.34 0.65 0.65 0.69 1.00 0.84 0.62 0.39 0.27 0.28 0.25 0.30 0.44 0.59 0.59 0.59 0.57 0.51 0.55 0.57 0.69 0.71 0.58 0.46 0.40 0.38 0.33 0.27 0.23 0.19 0.20 0.20 0.22 0.26
0.10 0.08 0.08 0.06 0.05 0.05 0.05 0.08 0.26 0.59 0.96 1.07 0.63 0.65 0.94 0.60 0.37 0.25 0.19 0.17 0.23 0.33 0.40 0.47 0.56 0.55 0.44 0.36 0.39 0.42 0.43 0.43 0.40 0.37 0.35 0.33 0.32 0.28 0.24 0.22 0.17 0.17 0.20 0.23
0.14 0.15 0.11 0.07 0.05 0.06 0.06 0.08 0.18 0.35 0.41 0.49 0.49 0.88 0.99 0.47 0.30 0.18 0.12 0.11 0.17 0.24 0.28 0.29 0.34 0.34 0.29 0.24 0.21 0.22 0.25 0.23 0.22 0.22 0.24 0.25 0.26 0.23 0.21 0.24 0.20 0.18 0.20 0.24
0.06 0.06 0.04 0.04 0.06 0.06 0.06 0.06 0.07 0.08 0.13 0.32 0.56 0.78 0.68 0.39 0.23 0.14 0.09 0.08 0.09 0.10 0.11 0.12 0.11 0.11 0.13 0.13 0.13 0.16 0.17 0.17 0.16 0.16 0.19 0.18 0.20 0.21 0.21 0.22 0.20 0.19 0.25 0.26
0.03 0.03 0.03 0.04 0.05 0.06 0.07 0.06 0.05 0.05 0.13 0.29 0.50 0.74 0.73 0.44 0.25 0.12 0.07 0.06 0.06 0.04 0.04 0.05 0.06 0.05 0.05 0.04 0.07 0.12 0.15 0.18 0.20 0.20 0.18 0.15 0.15 0.17 0.19 0.17 0.19 0.22 0.22 0.23
0.02 0.02 0.02 0.03 0.05 0.06 0.06 0.06 0.06 0.06 0.07 0.16 0.36 0.54 0.41 0.27 0.13 0.08 0.06 0.04 0.03 0.03 0.02 0.02 0.02 0.02 0.02 0.03 0.05 0.08 0.10 0.15 0.16 0.15 0.15 0.16 0.15 0.16 0.18 0.21 0.21 0.22 0.21 0.23
0.03 0.02 0.02 0.06 0.07 0.06 0.06 0.05 0.07 0.08 0.08 0.10 0.19 0.25 0.17 0.16 0.11 0.10 0.07 0.04 0.04 0.03 0.02 0.01 0.01 0.01 0.02 0.03 0.03 0.06 0.08 0.08 0.08 0.09 0.09 0.11 0.15 0.17 0.18 0.21 0.23 0.24 0.24 0.21
0.03 0.02 0.04 0.13 0.19 0.14 0.07 0.06 0.08 0.08 0.08 0.09 0.22 0.32 0.17 0.13 0.15 0.16 0.09 0.06 0.05 0.04 0.04 0.03 0.02 0.02 0.02 0.04 0.06 0.06 0.08 0.08 0.08 0.09 0.09 0.10 0.13 0.16 0.20 0.22 0.23 0.22 0.23 0.23
0.04 0.03 0.04 0.14 0.20 0.18 0.14 0.10 0.09 0.10 0.10 0.09 0.16 0.29 0.22 0.14 0.17 0.13 0.07 0.08 0.06 0.05 0.06 0.05 0.04 0.03 0.03 0.04 0.06 0.08 0.09 0.10 0.10 0.10 0.12 0.14 0.15 0.17 0.19 0.20 0.21 0.22 0.24 0.24
0.06 0.05 0.04 0.03 0.07 0.11 0.13 0.12 0.10 0.08 0.08 0.10 0.11 0.15 0.17 0.20 0.16 0.10 0.12 0.16 0.10 0.07 0.07 0.05 0.04 0.04 0.03 0.04 0.06 0.07 0.09 0.09 0.09 0.10 0.11 0.12 0.14 0.17 0.17 0.18 0.21 0.24 0.25 0.26
0.08 0.07 0.06 0.05 0.08 0.09 0.11 0.13 0.09 0.06 0.05 0.05 0.06 0.08 0.12 0.18 0.19 0.18 0.16 0.13 0.10 0.09 0.08 0.08 0.10 0.08 0.06 0.06 0.06 0.07 0.09 0.12 0.13 0.16 0.18 0.15 0.17 0.19 0.18 0.19 0.21 0.25 0.28 0.32
0.13 0.12 0.13 0.13 0.13 0.12 0.13 0.12 0.09 0.06 0.07 0.07 0.07 0.10 0.13 0.18 0.21 0.25 0.27 0.19 0.14 0.15 0.15 0.16 0.19 0.14 0.11 0.09 0.10 0.11 0.13 0.14 0.17 0.19 0.24 0.24 0.25 0.26 0.25 0.25 0.30 0.33 0.36 0.41
0.22 0.21 0.18 0.17 0.20 0.23 0.14 0.11 0.10 0.09 0.09 0.10 0.14 0.19 0.22 0.29 0.33 0.36 0.40 0.36 0.25 0.17 0.14 0.13 0.13 0.15 0.19 0.19 0.17 0.18 0.22 0.27 0.34 0.36 0.41 0.47 0.50 0.49 0.49 0.52 0.52 0.52 0.53 0.52
0.24 0.30 0.27 0.25 0.31 0.27 0.18 0.16 0.15 0.16 0.18 0.21 0.28 0.39 0.43 0.43 0.43 0.39 0.29 0.23 0.17 0.13 0.11 0.11 0.13 0.15 0.20 0.27 0.27 0.25 0.26 0.31 0.41 0.51 0.57 0.64 0.69 0.70 0.70 0.70 0.69 0.71 0.74 0.71
0.27 0.27 0.32 0.29 0.32 0.35 0.29 0.28 0.27 0.30 0.46 0.43 0.50 0.49 0.41 0.33 0.36 0.30 0.18 0.12 0.09 0.07 0.08 0.10 0.12 0.14 0.19 0.25 0.27 0.28 0.32 0.35 0.38 0.41 0.50 0.62 0.76 0.83 0.80 0.77 0.80 0.85 0.91 0.88
0.40 0.41 0.38 0.34 0.35 0.31 0.31 0.31 0.34 0.57 0.72 0.60 0.57 0.49 0.41 0.36 0.34 0.30 0.20 0.12 0.08 0.07 0.07 0.09 0.10 0.13 0.17 0.22 0.29 0.39 0.45 0.45 0.44 0.45 0.49 0.55 0.66 0.77 0.77 0.79 0.84 0.89 0.92 0.93
0.55 0.55 0.52 0.49 0.57 0.54 0.37 0.39 0.55 0.66 0.53 0.50 0.47 0.46 0.45 0.40 0.30 0.22 0.16 0.12 0.10 0.09 0.09 0.11 0.12 0.14 0.17 0.23 0.32 0.43 0.54 0.58 0.60 0.64 0.67 0.70 0.75 0.75 0.74 0.83 0.89 0.95 0.99 0.97
0.60 0.59 0.59 0.62 0.66 0.56 0.47 0.48 0.47 0.47 0.49 0.47 0.40 0.40 0.37 0.35 0.29 0.19 0.13 0.11 0.10 0.09 0.09 0.10 0.13 0.17 0.21 0.27 0.38 0.50 0.56 0.60 0.64 0.69 0.74 0.81 0.87 0.90 0.90 0.93 0.96 1.05 1.10 1.07
0.51 0.50 0.56 0.67 0.66 0.55 0.49 0.49 0.43 0.37 0.36 0.36 0.33 0.30 0.28 0.26 0.25 0.23 0.14 0.09 0.07 0.06 0.07 0.09 0.12 0.17 0.20 0.21 0.27 0.36 0.45 0.52 0.56 0.58 0.61 0.66 0.74 0.81 0.91 1.03 1.03 1.06 1.11 1.14
0.37 0.37 0.45 0.62 0.71 0.75 0.65 0.57 0.49 0.40 0.38 0.37 0.33 0.28 0.25 0.20 0.17 0.17 0.14 0.10 0.07 0.05 0.06 0.08 0.13 0.16 0.17 0.17 0.19 0.23 0.31 0.45 0.54 0.56 0.56 0.61 0.68 0.76 0.88 1.02 1.06 0.98 1.00 1.04
0.33 0.32 0.33 0.47 0.53 0.64 0.69 0.61 0.51 0.40 0.37 0.36 0.34 0.31 0.27 0.21 0.14 0.08 0.07 0.07 0.07 0.07 0.09 0.14 0.16 0.17 0.16 0.17 0.19 0.21 0.28 0.42 0.54 0.57 0.55 0.57 0.61 0.70 0.80 0.93 0.98 0.85 0.72 0.71

GEFSCGP_prec_meanprecacc_108.txt.gz
Total_Precipitation_Accumulation
0.00 0.00 0.01 0.01 0.01 0.02 0.02 0.05 0.11 0.19 0.12 0.12 0.23 0.42 0.48 0.51 0.60 0.76 0.90 0.87 0.92 1.04 1.32 1.65 2.00 2.42 2.93 3.53 4.25 4.32 3.75 3.13 2.60 2.15 1.77 1.44 1.18 1.07 1.02 0.86 0.77 0.75 0.75 0.77
0.01 0.02 0.02 0.02 0.02 0.04 0.05 0.07 0.12 0.16 0.11 0.13 0.20 0.40 0.58 0.67 0.79 0.80 0.84 0.88 0.85 1.04 1.39 1.75 2.17 2.52 2.86 3.28 3.78 3.67 3.14 2.50 1.86 1.42 1.25 1.10 0.91 0.76 0.64 0.56 0.57 0.52 0.58 0.64
0.01 0.03 0.02 0.02 0.02 0.05 0.07 0.08 0.12 0.14 0.07 0.12 0.19 0.47 0.73 0.83 0.71 0.58 0.50 0.60 0.63 0.78 1.21 1.82 2.31 2.59 2.77 2.86 2.70 2.53 2.10 1.53 1.16 0.89 0.78 0.66 0.59 0.53 0.42 0.35 0.36 0.34 0.36 0.40
0.01 0.02 0.01 0.02 0.03 0.04 0.07 0.05 0.05 0.05 0.06 0.20 0.29 0.73 0.96 0.84 0.68 0.55 0.42 0.40 0.43 0.59 1.00 1.72 2.01 2.04 2.06 2.02 1.68 1.44 1.27 0.99 0.79 0.63 0.57 0.50 0.42 0.41 0.34 0.29 0.28 0.25 0.25 0.28
0.02 0.02 0.02 0.02 0.03 0.04 0.05 0.04 0.04 0.07 0.11 0.25 0.42 0.71 0.96 0.80 0.71 0.53 0.38 0.34 0.38 0.48 0.71 1.03 1.07 1.16 1.19 1.13 1.01 0.96 0.98 0.83 0.73 0.65 0.60 0.55 0.38 0.31 0.26 0.24 0.22 0.22 0.24 0.27
0.04 0.04 0.03 0.03 0.02 0.03 0.04 0.05 0.11 0.23 0.34 0.65 0.65 0.70 1.00 0.84 0.62 0.39 0.27 0.28 0.26 0.32 0.46 0.63 0.63 0.64 0.62 0.56 0.61 0.68 0.82 0.83 0.71 0.58 0.48 0.44 0.36 0.30 0.25 0.21 0.21 0.21 0.23 0.26
0.10 0.08 0.08 0.06 0.05 0.06 0.05 0.09 0.26 0.59 0.96 1.07 0.63 0.66 0.95 0.60 0.37 0.26 0.19 0.18 0.23 0.33 0.42 0.51 0.60 0.58 0.48 0.41 0.44 0.49 0.52 0.52 0.49 0.45 0.40 0.37 0.36 0.30 0.26 0.23 0.19 0.18 0.20 0.23
0.14 0.15 0.11 0.07 0.05 0.06 0.07 0.09 0.18 0.35 0.42 0.49 0.49 0.88 0.99 0.47 0.30 0.18 0.12 0.12 0.17 0.24 0.29 0.30 0.36 0.35 0.31 0.28 0.25 0.27 0.31 0.29 0.28 0.29 0.30 0.30 0.29 0.25 0.22 0.25 0.21 0.18 0.20 0.24
0.06 0.06 0.04 0.04 0.06 0.06 0.06 0.06 0.07 0.08 0.13 0.32 0.57 0.78 0.68 0.39 0.23 0.14 0.09 0.08 0.09 0.11 0.12 0.13 0.12 0.12 0.14 0.15 0.16 0.18 0.20 0.21 0.21 0.22 0.24 0.22 0.23 0.24 0.23 0.24 0.21 0.20 0.25 0.27
0.03 0.03 0.03 0.04 0.05 0.07 0.07 0.06 0.05 0.05 0.14 0.30 0.50 0.75 0.73 0.45 0.25 0.12 0.08 0.06 0.06 0.05 0.05 0.06 0.07 0.06 0.05 0.05 0.08 0.14 0.16 0.20 0.24 0.24 0.22 0.18 0.18 0.20 0.21 0.20 0.21 0.24 0.23 0.24
0.02 0.02 0.02 0.03 0.05 0.06 0.06 0.06 0.06 0.06 0.07 0.17 0.37 0.54 0.41 0.27 0.13 0.08 0.06 0.04 0.04 0.04 0.04 0.03 0.03 0.02 0.03 0.04 0.06 0.10 0.11 0.15 0.19 0.18 0.18 0.18 0.17 0.18 0.20 0.22 0.23 0.24 0.22 0.23
0.03 0.02 0.02 0.06 0.07 0.06 0.06 0.06 0.07 0.08 0.09 0.11 0.19 0.25 0.17 0.16 0.11 0.10 0.07 0.05 0.05 0.04 0.03 0.03 0.02 0.01 0.03 0.04 0.04 0.07 0.09 0.09 0.09 0.11 0.11 0.13 0.17 0.18 0.20 0.23 0.26 0.26 0.24 0.22
0.03 0.02 0.04 0.14 0.20 0.14 0.08 0.06 0.08 0.09 0.09 0.10 0.23 0.32 0.18 0.13 0.15 0.16 0.09 0.07 0.06 0.05 0.05 0.04 0.03 0.02 0.03 0.04 0.06 0.07 0.09 0.10 0.10 0.11 0.11 0.12 0.16 0.19 0.22 0.24 0.24 0.23 0.24 0.24
0.05 0.04 0.05 0.15 0.20 0.19 0.15 0.11 0.10 0.10 0.11 0.10 0.16 0.30 0.22 0.15 0.17 0.13 0.08 0.09 0.07 0.05 0.07 0.06 0.05 0.05 0.05 0.06 0.08 0.10 0.11 0.13 0.13 0.14 0.15 0.16 0.19 0.20 0.21 0.21 0.22 0.24 0.26 0.26
0.06 0.06 0.05 0.04 0.08 0.12 0.14 0.13 0.11 0.09 0.09 0.11 0.11 0.16 0.18 0.20 0.16 0.10 0.12 0.17 0.10 0.08 0.08 0.07 0.06 0.05 0.05 0.06 0.07 0.09 0.12 0.13 0.14 0.14 0.15 0.16 0.18 0.20 0.19 0.21 0.24 0.27 0.28 0.29
0.08 0.07 0.06 0.06 0.09 0.10 0.11 0.14 0.10 0.07 0.06 0.06 0.06 0.09 0.12 0.18 0.20 0.19 0.16 0.14 0.11 0.10 0.09 0.10 0.13 0.10 0.09 0.09 0.09 0.10 0.13 0.18 0.20 0.22 0.23 0.20 0.21 0.23 0.21 0.22 0.25 0.29 0.33 0.37
0.14 0.14 0.14 0.14 0.13 0.14 0.14 0.13 0.09 0.07 0.08 0.08 0.08 0.11 0.13 0.19 0.22 0.26 0.28 0.20 0.16 0.16 0.16 0.19 0.23 0.18 0.14 0.13 0.14 0.17 0.21 0.23 0.26 0.28 0.34 0.33 0.33 0.33 0.31 0.31 0.35 0.40 0.47 0.50
0.23 0.23 0.20 0.19 0.22 0.25 0.16 0.12 0.11 0.10 0.10 0.11 0.15 0.20 0.24 0.30 0.34 0.38 0.43 0.39 0.28 0.19 0.17 0.16 0.17 0.20 0.23 0.23 0.24 0.26 0.32 0.36 0.43 0.47 0.53 0.59 0.60 0.59 0.60 0.64 0.62 0.62 0.64 0.63
0.26 0.32 0.30 0.29 0.34 0.29 0.20 0.18 0.16 0.17 0.20 0.22 0.30 0.41 0.46 0.45 0.46 0.44 0.36 0.28 0.21 0.17 0.15 0.15 0.17 0.19 0.23 0.31 0.33 0.32 0.36 0.42 0.54 0.64 0.68 0.74 0.78 0.79 0.79 0.79 0.78 0.79 0.83 0.81
0.29 0.29 0.36 0.34 0.37 0.38 0.32 0.31 0.30 0.34 0.50 0.46 0.52 0.53 0.46 0.39 0.42 0.36 0.26 0.20 0.16 0.12 0.12 0.13 0.16 0.18 0.23 0.29 0.32 0.36 0.42 0.47 0.52 0.55 0.61 0.73 0.86 0.92 0.87 0.83 0.85 0.91 0.99 0.97
0.44 0.44 0.41 0.39 0.40 0.35 0.36 0.36 0.40 0.63 0.76 0.64 0.62 0.56 0.48 0.45 0.43 0.39 0.30 0.21 0.14 0.11 0.10 0.12 0.13 0.16 0.21 0.26 0.33 0.45 0.53 0.54 0.55 0.57 0.62 0.68 0.78 0.88 0.86 0.87 0.91 0.98 1.01 1.03
0.60 0.60 0.58 0.54 0.63 0.59 0.43 0.46 0.63 0.72 0.58 0.56 0.55 0.56 0.55 0.50 0.40 0.32 0.27 0.21 0.15 0.12 0.11 0.13 0.14 0.15 0.20 0.27 0.36 0.49 0.61 0.64 0.67 0.72 0.77 0.84 0.90 0.88 0.85 0.94 1.01 1.08 1.13 1.11
0.66 0.67 0.68 0.70 0.74 0.66 0.56 0.58 0.55 0.53 0.56 0.56 0.51 0.52 0.48 0.47 0.44 0.33 0.24 0.20 0.15 0.12 0.11 0.12 0.15 0.18 0.22 0.30 0.41 0.55 0.61 0.65 0.70 0.76 0.82 0.92 0.99 1.01 1.01 1.05 1.09 1.21 1.27 1.25
0.61 0.60 0.67 0.76 0.75 0.67 0.62 0.63 0.54 0.46 0.46 0.47 0.46 0.42 0.40 0.39 0.41 0.38 0.26 0.18 0.13 0.10 0.09 0.10 0.14 0.18 0.21 0.23 0.29 0.37 0.46 0.53 0.58 0.61 0.65 0.71 0.79 0.86 0.97 1.08 1.11 1.15 1.23 1.27
0.53 0.48 0.55 0.73 0.81 0.86 0.79 0.71 0.63 0.53 0.50 0.51 0.48 0.42 0.36 0.30 0.29 0.30 0.26 0.19 0.14 0.10 0.09 0.10 0.14 0.17 0.18 0.18 0.20 0.23 0.31 0.45 0.55 0.57 0.58 0.63 0.71 0.80 0.94 1.08 1.13 1.05 1.06 1.12
0.56 0.48 0.44 0.59 0.63 0.76 0.84 0.78 0.70 0.58 0.53 0.52 0.51 0.46 0.40 0.32 0.25 0.18 0.16 0.14 0.13 0.11 0.13 0.16 0.18 0.18 0.17 0.18 0.19 0.21 0.28 0.42 0.54 0.57 0.57 0.61 0.67 0.77 0.88 1.00 1.05 0.90 0.77 0.76

GEFSCGP_prec_meanprecacc_114.txt.gz
Total_Precipitation_Accumulation
0.00 0.00 0.01 0.01 0.01 0.02 0.02 0.05 0.11 0.19 0.12 0.12 0.23 0.42 0.48 0.51 0.60 0.77 0.91 0.87 0.92 1.06 1.36 1.72 2.11 2.57 3.07 3.72 4.44 4.48 3.93 3.32 2.78 2.29 1.90 1.57 1.28 1.15 1.09 0.94 0.84 0.82 0.82 0.82
0.01 0.02 0.02 0.02 0.02 0.04 0.05 0.07 0.12 0.16 0.11 0.13 0.20 0.40 0.58 0.67 0.80 0.80 0.85 0.89 0.86 1.06 1.42 1.81 2.25 2.66 2.98 3.38 3.90 3.79 3.26 2.66 1.99 1.54 1.39 1.23 1.02 0.85 0.72 0.64 0.63 0.57 0.63 0.68
0.01 0.03 0.02 0.02 0.02 0.05 0.07 0.08 0.12 0.14 0.07 0.12 0.19 0.47 0.73 0.83 0.71 0.59 0.51 0.60 0.64 0.79 1.23 1.85 2.34 2.64 2.82 2.92 2.79 2.62 2.20 1.65 1.31 1.02 0.93 0.80 0.71 0.62 0.49 0.42 0.42 0.38 0.39 0.42
0.01 0.02 0.01 0.02 0.03 0.04 0.07 0.05 0.05 0.05 0.06 0.20 0.29 0.74 0.96 0.84 0.68 0.55 0.42 0.40 0.43 0.60 1.01 1.74 2.02 2.06 2.09 2.07 1.76 1.54 1.38 1.11 0.93 0.78 0.68 0.61 0.49 0.47 0.41 0.36 0.33 0.30 0.29 0.30
0.02 0.02 0.02 0.02 0.03 0.04 0.05 0.04 0.04 0.07 0.11 0.25 0.42 0.71 0.97 0.80 0.71 0.53 0.38 0.34 0.39 0.49 0.72 1.04 1.08 1.18 1.22 1.16 1.06 1.04 1.09 0.96 0.87 0.80 0.75 0.70 0.49 0.40 0.35 0.31 0.28 0.26 0.27 0.28
0.04 0.04 0.03 0.03 0.02 0.03 0.04 0.05 0.11 0.23 0.34 0.65 0.65 0.70 1.00 0.84 0.62 0.39 0.27 0.28 0.26 0.32 0.47 0.64 0.64 0.65 0.64 0.58 0.65 0.72 0.89 0.94 0.84 0.73 0.66 0.61 0.49 0.39 0.32 0.27 0.26 0.24 0.26 0.28
0.10 0.08 0.08 0.06 0.05 0.06 0.05 0.09 0.26 0.59 0.96 1.07 0.63 0.66 0.95 0.60 0.37 0.26 0.19 0.18 0.23 0.33 0.42 0.51 0.61 0.59 0.50 0.44 0.48 0.53 0.58 0.60 0.58 0.58 0.56 0.53 0.49 0.40 0.34 0.29 0.22 0.20 0.22 0.25
0.14 0.15 0.11 0.07 0.05 0.06 0.07 0.09 0.18 0.35 0.42 0.49 0.49 0.88 0.99 0.47 0.30 0.18 0.12 0.12 0.17 0.24 0.29 0.31 0.37 0.36 0.32 0.30 0.29 0.31 0.37 0.36 0.35 0.38 0.41 0.42 0.40 0.33 0.29 0.30 0.23 0.20 0.22 0.26
0.06 0.06 0.04 0.04 0.06 0.06 0.06 0.06 0.07 0.08 0.13 0.32 0.57 0.78 0.68 0.39 0.23 0.14 0.09 0.08 0.09 0.11 0.12 0.14 0.13 0.13 0.15 0.17 0.20 0.22 0.25 0.26 0.25 0.29 0.33 0.32 0.31 0.30 0.28 0.28 0.24 0.22 0.27 0.28
0.03 0.03 0.03 0.04 0.05 0.07 0.07 0.06 0.05 0.05 0.14 0.30 0.50 0.75 0.73 0.45 0.25 0.13 0.08 0.06 0.06 0.05 0.05 0.06 0.07 0.06 0.06 0.07 0.12 0.18 0.20 0.24 0.28 0.30 0.28 0.24 0.24 0.26 0.27 0.25 0.25 0.28 0.27 0.26
0.02 0.02 0.02 0.03 0.05 0.06 0.06 0.06 0.06 0.06 0.07 0.17 0.37 0.54 0.41 0.27 0.13 0.08 0.06 0.04 0.04 0.04 0.04 0.03 0.03 0.03 0.03 0.05 0.07 0.12 0.14 0.18 0.22 0.22 0.22 0.22 0.22 0.22 0.25 0.27 0.29 0.29 0.27 0.27
0.03 0.02 0.02 0.06 0.07 0.07 0.06 0.06 0.07 0.08 0.09 0.11 0.20 0.25 0.17 0.16 0.11 0.10 0.07 0.05 0.05 0.04 0.03 0.03 0.02 0.02 0.03 0.04 0.05 0.08 0.10 0.10 0.11 0.14 0.14 0.17 0.22 0.22 0.23 0.26 0.30 0.30 0.28 0.25
0.03 0.02 0.04 0.14 0.20 0.14 0.08 0.06 0.09 0.09 0.09 0.10 0.23 0.32 0.18 0.13 0.15 0.16 0.09 0.07 0.06 0.06 0.05 0.04 0.03 0.03 0.03 0.05 0.07 0.08 0.09 0.10 0.11 0.12 0.13 0.14 0.19 0.22 0.25 0.27 0.28 0.27 0.27 0.27
0.05 0.04 0.05 0.15 0.21 0.19 0.15 0.11 0.10 0.11 0.11 0.10 0.16 0.30 0.22 0.15 0.17 0.13 0.08 0.09 0.07 0.06 0.07 0.06 0.05 0.05 0.06 0.06 0.08 0.11 0.12 0.13 0.13 0.14 0.16 0.18 0.21 0.26 0.27 0.29 0.30 0.30 0.31 0.31
0.06 0.06 0.05 0.04 0.08 0.12 0.14 0.13 0.11 0.09 0.09 0.11 0.11 0.16 0.18 0.20 0.16 0.10 0.12 0.17 0.11 0.08 0.08 0.07 0.06 0.05 0.06 0.07 0.08 0.09 0.12 0.14 0.14 0.15 0.16 0.17 0.20 0.23 0.23 0.25 0.28 0.31 0.32 0.32
0.08 0.08 0.07 0.06 0.09 0.10 0.11 0.14 0.11 0.07 0.06 0.06 0.07 0.09 0.12 0.18 0.20 0.19 0.16 0.14 0.11 0.10 0.09 0.11 0.14 0.11 0.10 0.09 0.10 0.11 0.14 0.19 0.21 0.23 0.25 0.22 0.23 0.25 0.23 0.25 0.27 0.31 0.35 0.39
0.14 0.14 0.15 0.14 0.14 0.14 0.14 0.13 0.10 0.08 0.08 0.08 0.08 0.11 0.14 0.19 0.22 0.26 0.28 0.21 0.16 0.17 0.17 0.20 0.25 0.20 0.15 0.14 0.15 0.19 0.23 0.25 0.27 0.30 0.36 0.36 0.35 0.36 0.34 0.34 0.38 0.42 0.49 0.52
0.23 0.23 0.20 0.20 0.22 0.25 0.16 0.12 0.11 0.10 0.10 0.11 0.15 0.20 0.24 0.30 0.35 0.38 0.44 0.40 0.29 0.20 0.18 0.18 0.20 0.22 0.25 0.24 0.24 0.26 0.33 0.37 0.44 0.49 0.56 0.62 0.63 0.62 0.62 0.65 0.64 0.65 0.67 0.66
0.26 0.33 0.32 0.30 0.35 0.29 0.21 0.19 0.17 0.18 0.20 0.23 0.30 0.42 0.46 0.46 0.47 0.46 0.38 0.30 0.23 0.18 0.17 0.17 0.19 0.21 0.25 0.32 0.34 0.33 0.37 0.43 0.56 0.66 0.71 0.77 0.82 0.83 0.83 0.81 0.81 0.83 0.87 0.85
0.29 0.30 0.37 0.36 0.39 0.39 0.33 0.31 0.30 0.36 0.51 0.46 0.53 0.53 0.47 0.41 0.44 0.39 0.28 0.22 0.17 0.14 0.13 0.15 0.17 0.19 0.24 0.30 0.33 0.38 0.44 0.49 0.54 0.57 0.64 0.76 0.89 0.95 0.90 0.87 0.90 0.96 1.03 1.01
0.46 0.47 0.43 0.41 0.43 0.37 0.37 0.37 0.43 0.67 0.79 0.66 0.63 0.58 0.51 0.48 0.48 0.44 0.33 0.23 0.16 0.12 0.11 0.14 0.15 0.18 0.23 0.28 0.34 0.47 0.55 0.56 0.57 0.60 0.64 0.71 0.80 0.90 0.89 0.91 0.95 1.02 1.06 1.07
0.64 0.65 0.62 0.58 0.66 0.62 0.45 0.50 0.68 0.77 0.62 0.59 0.59 0.61 0.61 0.56 0.46 0.38 0.31 0.24 0.17 0.14 0.12 0.14 0.16 0.18 0.21 0.28 0.37 0.50 0.62 0.66 0.68 0.74 0.79 0.86 0.92 0.91 0.88 0.97 1.05 1.12 1.17 1.15
0.72 0.73 0.75 0.75 0.79 0.69 0.60 0.65 0.61 0.58 0.60 0.61 0.58 0.60 0.56 0.54 0.50 0.41 0.31 0.25 0.19 0.15 0.13 0.13 0.17 0.21 0.25 0.32 0.42 0.56 0.63 0.66 0.71 0.78 0.83 0.93 1.00 1.03 1.03 1.07 1.12 1.25 1.31 1.29
0.66 0.65 0.73 0.82 0.80 0.72 0.68 0.69 0.60 0.53 0.53 0.54 0.55 0.52 0.50 0.48 0.48 0.48 0.38 0.26 0.20 0.14 0.11 0.12 0.15 0.20 0.24 0.25 0.32 0.40 0.48 0.54 0.60 0.63 0.66 0.72 0.81 0.88 0.99 1.11 1.13 1.18 1.25 1.30
0.60 0.54 0.61 0.79 0.88 0.94 0.88 0.78 0.70 0.61 0.60 0.63 0.61 0.56 0.50 0.41 0.37 0.38 0.34 0.26 0.18 0.13 0.11 0.12 0.16 0.19 0.21 0.22 0.23 0.25 0.33 0.47 0.57 0.58 0.59 0.64 0.72 0.82 0.96 1.10 1.16 1.09 1.12 1.18
0.67 0.60 0.55 0.69 0.73 0.87 0.96 0.89 0.78 0.68 0.68 0.67 0.63 0.56 0.50 0.41 0.33 0.24 0.20 0.17 0.16 0.14 0.16 0.20 0.22 0.21 0.21 0.22 0.23 0.24 0.30 0.44 0.55 0.58 0.58 0.62 0.67 0.78 0.90 1.02 1.07 0.94 0.81 0.80

GEFSCGP_prec_meanprecacc_120.txt.gz
Total_Precipitation_Accumulation
0.00 0.00 0.01 0.01 0.01 0.02 0.02 0.05 0.11 0.19 0.12 0.12 0.23 0.42 0.48 0.51 0.60 0.77 0.91 0.88 0.94 1.07 1.39 1.77 2.18 2.68 3.21 3.86 4.61 4.69 4.14 3.54 2.98 2.47 2.06 1.76 1.46 1.30 1.23 1.04 0.91 0.87 0.86 0.85
0.01 0.02 0.02 0.02 0.02 0.04 0.05 0.07 0.12 0.16 0.11 0.13 0.20 0.40 0.58 0.68 0.80 0.80 0.85 0.90 0.87 1.08 1.43 1.85 2.32 2.74 3.06 3.47 4.01 3.94 3.43 2.79 2.12 1.70 1.54 1.40 1.22 1.00 0.84 0.74 0.73 0.64 0.66 0.70
0.01 0.03 0.02 0.02 0.02 0.05 0.07 0.08 0.12 0.14 0.07 0.12 0.19 0.48 0.75 0.86 0.72 0.59 0.51 0.61 0.64 0.80 1.25 1.87 2.38 2.68 2.89 3.00 2.87 2.70 2.30 1.75 1.42 1.18 1.08 0.99 0.91 0.79 0.63 0.54 0.51 0.45 0.44 0.46
0.01 0.02 0.01 0.02 0.03 0.04 0.07 0.05 0.05 0.05 0.06 0.20 0.29 0.75 0.98 0.87 0.70 0.56 0.42 0.40 0.43 0.60 1.03 1.76 2.06 2.11 2.15 2.13 1.83 1.63 1.50 1.25 1.06 0.92 0.82 0.75 0.63 0.61 0.52 0.45 0.41 0.36 0.35 0.35
0.02 0.02 0.02 0.02 0.03 0.04 0.05 0.04 0.04 0.07 0.11 0.25 0.43 0.72 0.97 0.80 0.72 0.54 0.38 0.34 0.39 0.50 0.74 1.08 1.13 1.23 1.27 1.21 1.12 1.13 1.20 1.11 1.02 0.93 0.88 0.85 0.63 0.52 0.46 0.40 0.37 0.32 0.32 0.33
0.04 0.04 0.03 0.03 0.02 0.03 0.04 0.05 0.11 0.23 0.34 0.66 0.66 0.71 1.02 0.85 0.62 0.39 0.27 0.28 0.26 0.32 0.48 0.67 0.70 0.71 0.69 0.62 0.69 0.81 0.99 1.05 0.98 0.87 0.81 0.75 0.63 0.53 0.44 0.36 0.34 0.30 0.30 0.32
0.10 0.08 0.08 0.06 0.05 0.06 0.05 0.09 0.26 0.60 0.99 1.11 0.66 0.67 0.96 0.60 0.37 0.26 0.19 0.18 0.23 0.33 0.43 0.54 0.66 0.64 0.54 0.48 0.51 0.60 0.69 0.71 0.71 0.72 0.74 0.71 0.63 0.55 0.45 0.37 0.29 0.27 0.26 0.28
0.14 0.15 0.11 0.07 0.05 0.06 0.07 0.09 0.18 0.36 0.45 0.55 0.53 0.91 1.00 0.47 0.30 0.18 0.12 0.12 0.17 0.24 0.30 0.33 0.40 0.39 0.35 0.34 0.33 0.38 0.46 0.46 0.47 0.52 0.58 0.59 0.54 0.46 0.40 0.40 0.30 0.25 0.27 0.30
0.06 0.06 0.04 0.04 0.06 0.06 0.06 0.06 0.07 0.08 0.13 0.33 0.58 0.79 0.69 0.40 0.23 0.14 0.09 0.08 0.09 0.11 0.12 0.14 0.14 0.15 0.17 0.21 0.26 0.30 0.35 0.36 0.37 0.43 0.47 0.46 0.45 0.44 0.43 0.40 0.32 0.28 0.33 0.33
0.03 0.03 0.03 0.04 0.05 0.07 0.07 0.06 0.06 0.05 0.14 0.31 0.51 0.77 0.77 0.46 0.26 0.13 0.08 0.07 0.06 0.05 0.05 0.06 0.07 0.07 0.08 0.09 0.18 0.26 0.28 0.34 0.39 0.41 0.38 0.35 0.38 0.38 0.38 0.35 0.33 0.37 0.33 0.32
0.02 0.02 0.02 0.03 0.05 0.07 0.06 0.06 0.06 0.06 0.07 0.17 0.40 0.58 0.45 0.29 0.14 0.09 0.06 0.04 0.04 0.04 0.04 0.03 0.04 0.04 0.05 0.07 0.11 0.18 0.22 0.28 0.31 0.31 0.32 0.37 0.37 0.36 0.35 0.35 0.36 0.38 0.34 0.34
0.03 0.02 0.02 0.06 0.07 0.07 0.06 0.06 0.07 0.09 0.09 0.11 0.21 0.29 0.19 0.17 0.12 0.10 0.07 0.05 0.05 0.04 0.03 0.03 0.02 0.02 0.04 0.06 0.07 0.13 0.14 0.15 0.17 0.22 0.24 0.26 0.31 0.33 0.35 0.36 0.38 0.37 0.33 0.30
0.03 0.02 0.04 0.14 0.20 0.14 0.08 0.06 0.09 0.09 0.09 0.10 0.25 0.35 0.20 0.14 0.15 0.16 0.09 0.07 0.06 0.06 0.05 0.04 0.03 0.03 0.04 0.05 0.08 0.10 0.11 0.12 0.13 0.17 0.19 0.22 0.25 0.29 0.35 0.38 0.37 0.34 0.34 0.33
0.05 0.04 0.05 0.16 0.22 0.21 0.17 0.12 0.10 0.11 0.11 0.10 0.17 0.31 0.23 0.16 0.18 0.14 0.08 0.09 0.07 0.06 0.07 0.07 0.07 0.05 0.06 0.06 0.09 0.12 0.13 0.15 0.15 0.17 0.21 0.25 0.29 0.32 0.34 0.36 0.39 0.38 0.39 0.39
0.06 0.06 0.05 0.05 0.10 0.16 0.18 0.14 0.11 0.09 0.09 0.11 0.12 0.18 0.23 0.26 0.19 0.11 0.13 0.17 0.11 0.09 0.09 0.07 0.07 0.07 0.06 0.07 0.09 0.10 0.13 0.17 0.18 0.19 0.22 0.24 0.27 0.30 0.30 0.33 0.37 0.40 0.42 0.43
0.09 0.08 0.07 0.06 0.10 0.11 0.13 0.16 0.11 0.07 0.06 0.07 0.07 0.13 0.19 0.22 0.24 0.22 0.17 0.14 0.12 0.11 0.10 0.12 0.15 0.13 0.12 0.12 0.12 0.13 0.17 0.22 0.27 0.30 0.30 0.27 0.30 0.31 0.29 0.32 0.35 0.39 0.42 0.47
0.14 0.14 0.15 0.14 0.14 0.14 0.15 0.14 0.10 0.08 0.09 0.09 0.09 0.12 0.17 0.25 0.26 0.28 0.29 0.21 0.17 0.17 0.18 0.22 0.26 0.21 0.16 0.15 0.17 0.20 0.24 0.27 0.32 0.36 0.42 0.43 0.42 0.42 0.40 0.41 0.46 0.50 0.57 0.59
0.23 0.24 0.21 0.20 0.23 0.26 0.17 0.13 0.12 0.10 0.11 0.12 0.15 0.21 0.25 0.32 0.37 0.41 0.45 0.41 0.30 0.21 0.21 0.21 0.22 0.24 0.26 0.26 0.27 0.29 0.35 0.40 0.48 0.55 0.63 0.69 0.70 0.70 0.71 0.74 0.73 0.74 0.77 0.76
0.26 0.34 0.33 0.31 0.36 0.30 0.22 0.19 0.17 0.19 0.21 0.23 0.31 0.43 0.47 0.47 0.50 0.51 0.41 0.31 0.24 0.20 0.20 0.22 0.22 0.24 0.27 0.34 0.37 0.36 0.41 0.47 0.61 0.72 0.80 0.86 0.90 0.92 0.92 0.90 0.90 0.94 1.00 0.98
0.30 0.32 0.40 0.38 0.41 0.41 0.36 0.32 0.31 0.37 0.54 0.48 0.54 0.56 0.50 0.44 0.51 0.48 0.35 0.25 0.19 0.17 0.17 0.20 0.22 0.24 0.29 0.36 0.38 0.44 0.51 0.56 0.61 0.63 0.71 0.85 0.98 1.04 1.00 0.98 1.03 1.10 1.17 1.15
0.50 0.51 0.47 0.44 0.46 0.40 0.40 0.38 0.44 0.71 0.86 0.70 0.65 0.62 0.56 0.59 0.59 0.52 0.40 0.28 0.19 0.16 0.16 0.18 0.21 0.25 0.31 0.37 0.43 0.56 0.66 0.66 0.65 0.67 0.73 0.82 0.93 1.03 1.01 1.04 1.07 1.14 1.18 1.19
0.70 0.71 0.69 0.65 0.72 0.68 0.47 0.51 0.72 0.85 0.68 0.62 0.62 0.71 0.72 0.66 0.55 0.45 0.38 0.32 0.23 0.18 0.16 0.18 0.21 0.25 0.29 0.36 0.46 0.60 0.73 0.76 0.78 0.83 0.89 0.96 1.03 1.01 0.99 1.08 1.14 1.22 1.28 1.27
0.76 0.78 0.80 0.81 0.84 0.73 0.62 0.66 0.64 0.61 0.65 0.66 0.65 0.75 0.75 0.65 0.59 0.47 0.39 0.34 0.27 0.22 0.17 0.17 0.21 0.26 0.31 0.37 0.50 0.66 0.73 0.76 0.80 0.87 0.91 1.00 1.07 1.10 1.10 1.15 1.20 1.34 1.42 1.40
0.69 0.67 0.75 0.85 0.82 0.73 0.70 0.70 0.61 0.55 0.58 0.60 0.62 0.62 0.65 0.58 0.57 0.56 0.45 0.33 0.26 0.21 0.17 0.17 0.19 0.24 0.28 0.29 0.36 0.47 0.55 0.61 0.68 0.71 0.73 0.78 0.88 0.95 1.05 1.17 1.19 1.24 1.32 1.38
0.64 0.59 0.66 0.84 0.93 0.98 0.91 0.81 0.73 0.66 0.66 0.70 0.70 0.65 0.61 0.51 0.46 0.46 0.41 0.31 0.24 0.18 0.16 0.17 0.20 0.23 0.24 0.25 0.28 0.31 0.41 0.56 0.65 0.65 0.65 0.72 0.80 0.88 1.02 1.16 1.21 1.14 1.16 1.24
0.72 0.66 0.61 0.75 0.81 0.97 1.03 0.94 0.82 0.73 0.76 0.77 0.75 0.67 0.60 0.50 0.41 0.31 0.26 0.22 0.20 0.19 0.20 0.23 0.25 0.24 0.24 0.25 0.27 0.30 0.38 0.52 0.63 0.65 0.65 0.68 0.73 0.83 0.95 1.07 1.12 0.99 0.85 0.84